GFSCGP_sfc_30mbdewp_057.txt.gz
Dewpoint
35 33 29 29 32 33 36 35 35 35 40 40 42 49 52 55 54 54 53 56 56 57 59 59 61 61 61 63 64 63 66 68 68 69 68 69 67 67 64 64 70 71 70 71
33 33 33 31 32 32 32 32 33 32 33 39 47 49 52 52 52 52 54 57 57 55 55 57 57 58 60 63 62 65 65 69 68 70 68 69 68 67 65 65 66 71 71 72
31 33 34 31 31 31 31 31 32 32 30 38 46 47 49 50 54 55 57 58 57 54 54 56 56 58 59 63 63 63 67 70 69 70 69 68 69 67 66 65 63 70 70 71
31 32 32 31 29 30 29 31 32 33 32 35 36 39 49 49 51 51 55 57 54 52 53 56 56 57 59 62 65 64 68 70 70 70 69 67 65 65 67 64 65 66 71 72
25 31 30 30 28 26 25 28 27 30 32 32 35 34 46 48 45 50 53 56 53 54 52 55 56 57 58 61 64 66 66 70 70 69 68 68 67 66 64 65 64 67 70 70
27 31 32 30 28 27 27 26 25 25 28 28 27 34 34 43 46 47 53 55 56 54 52 53 56 57 57 61 64 67 66 68 69 69 69 67 67 65 65 63 64 66 72 71
27 28 30 32 29 28 26 25 21 20 22 26 27 28 33 34 38 47 51 54 55 52 53 53 55 56 57 60 63 67 67 67 70 69 67 70 68 67 64 63 64 67 71 71
22 25 30 32 30 27 25 24 19 16 16 21 21 19 23 27 30 35 47 52 52 52 53 53 53 55 56 58 62 65 68 67 69 71 69 67 70 70 66 68 65 65 68 70
18 23 29 31 31 26 20 19 19 14 17 17 18 19 22 23 25 28 35 47 49 51 53 53 53 54 55 57 61 64 67 68 69 69 70 70 68 71 69 65 69 69 66 69
29 17 22 26 31 29 18 18 16 13 11 13 15 19 20 21 22 25 23 36 43 49 52 53 53 54 55 56 59 62 67 68 69 70 70 71 71 69 71 70 67 66 68 70
34 26 20 20 26 27 22 17 15 14 14 12 14 15 20 24 23 23 26 31 40 45 52 53 54 54 55 56 58 61 64 68 70 71 70 71 72 72 70 71 70 68 68 67
34 31 24 19 20 24 24 17 17 13 12 14 13 12 25 19 25 24 28 27 37 42 52 53 54 54 55 55 56 59 63 67 69 70 71 71 72 73 72 70 70 70 68 70
33 31 26 22 21 20 22 17 17 18 18 15 10 11 17 23 26 24 28 30 28 42 50 53 54 54 54 55 56 59 60 65 68 70 70 72 72 72 73 73 70 70 71 70
40 33 33 26 23 20 19 20 15 15 16 15 16 14 23 23 25 28 27 32 37 37 46 51 54 54 54 55 56 57 59 61 67 69 71 71 73 73 73 74 73 71 71 71
32 27 29 28 30 28 26 21 17 15 14 18 18 20 22 23 32 35 37 38 37 37 48 50 52 54 55 55 56 57 58 60 61 69 70 71 72 73 73 73 74 73 71 73
31 26 29 30 31 29 28 27 18 17 16 16 19 15 29 28 33 34 35 36 38 43 45 47 50 53 55 56 57 58 58 60 61 62 69 70 72 73 73 73 73 74 74 71
29 24 26 28 30 29 29 28 28 17 19 17 16 19 33 28 33 34 33 34 38 41 40 40 42 48 55 57 59 60 60 60 62 63 64 69 71 72 73 73 73 73 73 74
29 23 26 28 29 27 30 33 32 26 20 25 20 27 29 32 41 40 36 32 35 37 37 42 43 46 47 59 61 61 62 64 63 63 66 66 70 72 72 72 73 73 73 73
25 22 24 26 29 30 31 30 29 30 43 44 45 42 34 45 48 51 52 53 54 55 56 55 53 54 53 52 55 65 62 64 66 66 67 68 70 71 72 72 73 73 73 73
23 21 23 24 27 27 33 32 34 34 41 44 43 47 43 44 46 48 51 53 55 57 59 60 60 57 54 56 56 61 65 65 64 65 69 71 70 71 71 72 73 74 74 73
20 21 21 22 24 35 34 34 42 38 39 41 39 43 47 46 48 49 51 53 57 57 59 62 63 63 62 59 56 55 55 63 68 69 68 70 72 72 72 72 73 73 74 74
30 29 24 21 24 28 36 33 34 38 38 37 39 38 45 45 44 45 46 49 54 55 56 58 62 65 67 64 59 56 59 59 59 67 69 70 71 72 73 73 74 74 74 74
28 33 33 31 30 35 32 31 34 30 30 35 35 35 37 42 41 42 43 45 47 53 56 57 60 66 67 68 65 61 60 63 63 68 70 70 71 71 70 73 74 74 74 74
25 30 30 31 30 31 32 30 35 36 36 34 31 32 35 37 40 41 42 43 44 46 54 57 56 62 66 68 69 70 64 67 70 66 71 72 71 73 71 73 74 74 74 74
29 31 32 30 31 34 33 34 35 36 37 38 39 34 32 32 38 40 41 42 43 45 53 57 56 57 64 67 72 73 71 69 65 66 72 73 73 72 73 66 66 72 71 71
30 32 33 31 35 36 36 37 37 37 38 38 39 38 37 36 38 40 40 43 44 42 43 57 58 62 65 66 70 72 73 74 74 69 67 74 73 73 71 65 62 54 57 58

GFSCGP_sfc_30mbdewp_060.txt.gz
Dewpoint
28 25 21 19 20 24 32 33 34 36 46 51 51 50 51 52 56 58 59 60 60 60 61 61 61 61 61 63 65 64 64 65 67 67 67 66 65 66 67 66 67 69 70 72
33 29 27 28 27 27 30 31 33 36 36 41 49 50 52 52 52 57 58 59 60 60 60 61 61 61 60 62 64 64 65 65 66 66 66 68 67 66 67 65 68 69 70 71
30 33 34 34 32 29 30 30 31 33 34 44 47 49 50 51 53 56 55 57 58 59 59 60 61 61 61 61 63 63 66 66 67 67 67 69 69 67 66 65 65 70 70 71
24 30 32 33 32 29 29 31 31 31 32 32 44 43 49 51 52 53 54 54 55 56 59 59 60 61 61 61 63 63 67 67 67 69 67 66 66 67 66 65 65 67 71 72
21 26 31 31 32 31 30 32 31 31 30 31 36 40 47 50 50 50 50 53 55 57 55 57 58 60 61 61 62 64 67 67 67 69 68 67 65 66 66 65 64 65 70 71
23 22 29 31 32 33 31 29 27 27 26 24 28 32 37 48 48 47 48 51 54 57 55 55 57 59 60 61 62 62 66 68 68 69 68 67 66 66 65 65 65 64 67 70
18 21 24 26 30 31 30 26 22 22 22 22 25 29 32 47 48 47 48 48 52 56 55 54 56 56 58 61 63 62 65 67 69 68 68 68 67 66 65 65 63 64 66 69
23 18 22 27 29 29 28 26 24 21 20 21 25 25 27 36 47 48 49 49 51 54 54 53 55 56 57 60 63 63 63 65 68 68 68 68 67 67 66 65 65 63 67 69
33 26 27 26 28 30 29 25 26 22 18 17 20 23 24 24 36 38 47 49 50 53 54 54 54 56 57 60 62 64 64 64 67 67 68 69 69 67 66 66 65 65 67 70
35 31 30 25 25 30 30 27 24 21 21 17 15 18 19 22 20 23 40 47 50 54 55 54 53 56 56 59 62 64 65 64 65 68 67 66 67 70 71 67 66 68 67 68
34 33 31 29 21 23 29 27 21 22 17 16 14 13 18 20 21 22 37 48 51 54 55 54 53 55 56 58 61 63 65 65 65 66 68 68 68 67 68 71 67 66 67 69
34 34 31 28 26 21 27 28 22 17 16 15 14 14 19 19 23 24 24 44 51 53 54 53 53 54 56 56 59 62 64 65 66 67 67 68 69 69 67 67 71 69 67 66
37 36 31 25 24 23 20 20 21 16 16 14 13 13 16 18 21 27 24 29 47 52 53 53 53 53 55 56 57 60 63 65 66 67 68 68 70 71 71 69 68 71 69 68
39 36 33 30 28 30 27 28 21 17 14 14 13 12 13 13 14 30 26 29 42 50 51 53 53 53 54 55 56 58 61 65 66 68 69 69 69 71 72 72 70 68 70 70
37 31 31 27 26 27 29 28 29 19 17 14 14 16 18 16 16 34 29 33 41 48 50 53 54 53 54 55 55 57 59 62 65 68 69 69 70 70 71 73 73 71 69 69
37 30 29 25 26 29 30 31 28 27 16 17 17 16 21 19 31 37 36 40 41 49 51 53 54 54 54 54 55 56 58 61 64 67 68 68 70 71 71 71 72 73 72 70
32 31 29 25 29 30 28 30 33 28 17 16 15 17 25 30 41 44 40 40 43 47 51 53 54 54 54 54 55 56 58 59 63 66 66 68 69 70 72 72 72 72 73 72
31 31 31 24 27 26 32 34 33 40 39 39 41 43 38 50 52 53 55 53 51 50 50 51 52 54 55 55 55 56 57 59 60 63 67 68 69 71 71 72 72 72 73 73
31 32 29 23 27 30 34 34 34 34 38 37 43 46 49 48 51 52 56 58 59 61 60 56 55 55 55 57 58 58 58 59 60 61 62 67 69 71 72 72 72 72 73 73
28 32 32 23 25 32 34 36 38 40 36 38 38 43 46 44 47 49 54 55 56 58 62 64 65 65 60 57 61 61 61 61 60 61 63 64 67 70 71 72 72 73 73 73
27 30 30 26 24 36 35 39 36 34 35 37 39 40 41 42 45 45 46 46 55 55 57 63 66 67 67 65 57 58 64 64 65 65 65 67 66 67 70 71 72 72 72 72
31 31 30 32 29 31 37 38 37 36 36 36 38 35 39 41 41 42 43 43 44 52 55 55 59 65 66 68 69 67 64 62 64 68 67 70 70 69 70 71 72 72 72 72
30 33 31 31 30 35 34 39 44 40 35 37 38 38 38 37 40 40 41 41 43 44 57 56 53 57 63 66 70 70 72 67 62 64 67 69 70 71 72 71 71 72 72 72
30 32 31 31 32 32 34 34 41 37 36 37 37 38 39 38 39 40 40 41 42 42 45 57 56 55 59 65 67 71 72 72 69 65 65 70 70 71 71 73 73 72 73 73
34 33 34 31 32 36 35 35 36 38 39 39 39 37 38 39 41 39 39 41 40 42 43 50 56 54 54 63 66 68 72 71 71 71 69 69 72 71 71 70 70 73 73 72
36 34 32 31 37 37 38 38 39 39 40 41 40 38 36 39 39 39 40 42 41 42 43 44 57 56 56 60 64 66 71 71 70 68 70 70 71 72 71 66 63 55 57 60

GFSCGP_sfc_30mbdewp_063.txt.gz
Dewpoint
25 21 17 16 20 22 28 31 31 34 38 48 49 50 55 60 59 59 59 59 60 60 61 62 62 62 61 61 61 62 63 65 66 67 66 66 66 67 67 67 69 68 71 71
26 21 21 20 20 19 20 21 26 33 42 48 49 48 52 58 60 59 59 59 60 60 60 61 61 61 62 62 61 62 63 65 66 66 66 66 65 66 67 66 67 68 69 72
30 31 27 25 23 20 21 22 25 31 45 49 48 49 49 54 56 59 60 60 60 60 60 61 61 61 61 62 64 63 62 64 66 66 66 68 67 66 66 66 65 69 69 71
28 30 31 28 29 27 25 29 30 31 31 33 47 41 48 50 52 52 56 60 60 60 60 60 61 61 61 61 64 64 64 64 65 66 65 65 63 63 63 65 65 66 70 70
25 24 25 30 31 33 28 31 30 31 31 31 42 41 43 50 50 51 53 57 59 60 60 60 60 60 61 61 63 64 64 64 65 67 65 65 64 64 66 65 64 64 70 70
24 25 24 26 32 33 34 30 30 30 29 27 29 37 34 46 48 50 52 55 56 59 60 60 60 61 61 61 61 63 64 65 66 67 66 65 64 65 66 66 64 64 65 70
30 22 23 25 28 32 33 29 27 26 25 25 27 27 28 41 46 49 50 52 54 55 57 58 60 60 61 61 61 63 64 65 66 67 67 66 65 65 65 65 65 64 64 67
29 20 21 24 24 28 30 30 26 23 22 24 25 24 26 33 45 48 50 51 52 53 56 57 57 59 60 61 61 62 64 64 66 67 67 67 66 66 65 65 65 65 65 66
31 30 33 31 31 27 27 28 30 25 21 19 22 25 26 28 35 46 49 48 48 52 54 56 56 57 58 61 62 62 63 64 66 67 67 67 67 67 66 66 66 65 65 67
34 28 33 33 31 26 26 28 26 24 24 21 19 20 23 25 26 40 47 48 48 49 52 55 55 56 58 60 61 62 62 64 66 67 67 67 67 67 67 67 65 65 65 66
33 32 30 32 28 23 25 26 26 27 24 22 21 22 21 23 26 27 41 47 48 49 50 54 54 55 57 58 61 62 62 62 64 66 67 67 67 68 67 67 67 67 66 65
37 35 31 30 33 34 33 27 29 25 23 20 20 22 21 19 21 25 26 33 41 49 50 53 54 54 56 57 60 62 63 63 62 65 66 66 67 68 69 69 67 66 66 68
34 35 27 25 27 30 28 28 28 25 23 21 20 22 19 18 18 22 24 30 47 49 50 53 54 54 55 56 58 61 63 63 63 63 65 66 66 67 66 67 70 69 67 66
38 33 29 25 30 30 28 27 27 28 22 25 20 18 18 16 16 17 19 27 31 49 50 54 54 54 54 56 57 60 62 64 64 64 65 65 67 68 68 67 67 69 70 69
36 31 32 32 31 30 28 27 26 26 29 20 22 17 17 16 16 18 30 32 32 31 50 54 54 54 54 55 56 58 61 63 64 64 65 65 66 68 69 69 69 68 68 69
36 27 31 28 28 26 26 27 27 30 30 29 19 16 19 40 47 48 45 40 33 40 51 53 54 54 54 55 56 57 60 62 65 65 65 66 67 68 69 70 70 70 69 68
31 32 30 23 26 26 27 30 35 36 37 34 21 30 43 50 53 55 56 55 42 45 51 52 53 53 54 54 56 56 58 61 64 65 66 67 68 68 68 70 71 72 71 70
31 32 31 26 25 25 33 36 36 37 36 38 41 47 51 54 54 53 55 57 59 53 51 52 53 54 54 54 55 56 58 60 62 65 66 67 68 69 70 69 70 71 72 72
32 33 30 25 27 29 35 36 35 37 33 36 38 41 46 52 52 51 47 54 57 63 64 60 55 55 55 54 55 56 57 59 62 63 65 66 68 68 69 70 70 71 71 72
33 36 31 29 26 33 35 38 37 39 33 35 37 37 40 47 46 43 44 47 54 55 62 66 65 59 57 57 56 56 57 59 60 62 65 66 67 68 69 70 71 71 71 71
30 31 28 28 28 35 38 37 39 35 33 36 37 36 38 39 42 42 43 44 50 56 54 59 65 67 68 63 59 57 57 58 59 60 62 64 68 68 69 71 71 71 72 72
30 29 29 30 30 31 37 36 37 39 37 36 37 36 36 38 40 41 41 41 41 48 56 54 59 63 66 70 70 67 64 63 64 63 63 63 64 68 69 70 71 71 72 72
29 32 31 31 31 35 34 38 38 42 37 37 37 37 37 36 39 41 40 40 41 42 51 56 53 55 62 66 70 70 71 65 63 68 68 67 67 66 66 69 70 71 71 71
33 34 32 32 32 34 36 40 40 41 41 40 40 40 39 37 38 40 40 40 40 42 43 56 56 53 55 62 66 70 71 71 70 69 68 69 70 70 69 69 70 70 71 71
34 36 33 32 32 36 36 38 39 41 43 43 43 43 41 39 36 39 40 42 41 42 43 44 53 57 57 59 60 63 69 69 68 67 68 69 70 70 70 71 70 71 71 71
35 34 32 31 37 38 38 39 41 42 43 44 44 44 44 42 40 39 38 42 42 40 41 40 45 54 58 59 58 60 64 66 65 66 66 66 68 69 71 69 66 57 60 62

GFSCGP_sfc_30mbdewp_069.txt.gz
Dewpoint
27 25 21 17 20 19 24 25 21 33 39 39 42 48 56 59 58 57 59 59 59 59 61 62 63 64 65 65 65 66 66 67 68 66 65 66 65 67 69 69 70 71 71 72
24 18 18 20 20 20 21 24 27 30 33 39 39 41 51 58 59 58 58 59 59 59 60 62 63 63 64 65 65 65 65 66 68 66 66 66 67 67 69 69 70 71 71 72
23 23 23 19 19 19 18 18 24 25 31 35 42 41 50 57 59 59 59 58 59 59 60 61 62 63 63 64 65 65 66 66 67 67 67 68 68 68 68 68 68 70 71 71
26 24 22 19 17 18 16 19 22 24 25 32 43 36 48 52 56 58 59 59 59 59 60 60 61 62 63 63 65 66 66 66 66 68 67 67 65 64 65 67 68 69 71 70
28 28 23 21 18 17 14 16 15 19 23 26 29 41 39 50 52 55 57 58 59 59 59 60 61 61 62 63 64 65 66 67 67 68 67 67 67 66 66 66 68 68 70 71
30 28 28 25 24 21 18 24 18 16 16 21 27 31 35 41 46 50 55 58 58 59 59 60 61 62 62 62 63 64 66 67 68 68 68 68 67 67 66 66 65 66 67 69
26 24 22 26 26 27 24 21 23 19 16 18 27 28 31 37 44 43 50 56 58 59 59 60 60 61 62 62 63 63 66 66 67 67 67 68 68 68 67 67 65 64 64 66
25 19 24 29 24 24 27 26 17 17 13 12 26 28 31 34 37 45 48 51 55 59 59 60 61 61 62 63 64 65 66 66 67 67 67 68 69 66 66 67 65 65 64 64
26 22 28 32 32 28 26 27 26 23 25 19 18 28 31 33 33 34 38 46 51 55 59 60 61 61 62 63 64 65 66 67 67 66 67 68 68 68 66 67 68 66 67 64
29 10 23 30 30 30 28 28 28 27 18 20 20 22 24 31 31 33 37 41 45 51 54 58 60 61 62 63 64 64 65 67 67 67 67 68 68 69 68 68 68 67 67 68
25 19 5 21 26 25 27 25 26 27 25 19 21 21 26 28 33 33 33 40 45 50 53 55 60 62 62 62 63 64 65 66 66 67 67 67 68 68 68 68 68 68 68 69
31 27 13 7 26 30 29 27 26 24 27 27 23 22 29 30 30 31 32 34 42 48 51 55 58 61 61 63 62 63 64 64 66 66 67 68 68 68 67 68 68 68 68 69
32 27 10 -5 23 29 28 29 28 27 27 26 26 25 31 30 30 31 31 30 38 49 51 53 55 58 61 63 63 63 63 63 63 65 66 67 68 68 68 68 69 68 68 68
34 28 23 10 21 25 26 28 28 26 24 22 25 27 29 30 30 33 34 33 33 39 49 52 54 56 59 61 64 64 63 63 63 64 65 66 68 68 68 69 69 69 69 69
34 22 22 18 19 20 20 21 24 26 26 25 24 27 29 32 37 49 50 52 53 52 47 48 52 55 58 60 62 64 64 64 64 65 66 67 68 69 69 69 69 69 69 69
36 22 26 18 17 23 23 20 21 24 25 26 28 29 34 42 52 50 50 51 53 55 57 54 52 54 58 59 61 63 64 65 65 66 66 68 68 69 69 69 70 70 69 69
31 24 22 10 22 25 18 22 22 22 34 33 31 32 42 45 50 50 50 51 53 55 56 58 60 54 59 59 61 63 64 65 65 66 66 68 69 69 69 69 70 70 70 70
30 30 28 17 17 15 30 38 30 30 36 37 38 39 41 49 49 46 46 48 51 55 57 58 60 61 57 58 59 62 63 65 66 66 66 67 68 69 69 69 69 69 69 69
30 29 22 18 17 20 29 36 36 36 34 35 36 37 38 41 46 46 42 42 46 53 57 59 63 63 53 57 60 63 64 65 66 66 66 67 68 68 69 69 69 69 69 69
31 30 27 19 19 18 33 37 38 38 34 37 36 37 38 42 47 39 41 41 43 52 58 61 65 58 53 58 59 63 64 65 65 66 67 68 68 68 68 69 70 70 70 70
28 29 26 23 19 23 36 37 39 34 35 39 38 39 39 38 39 40 41 43 43 48 57 61 66 63 60 60 61 63 64 65 66 66 67 68 69 69 69 70 70 70 70 70
25 24 24 25 21 20 38 36 33 36 41 40 40 41 41 40 39 38 40 43 44 43 51 58 61 64 65 62 63 63 64 65 67 67 67 69 69 68 68 71 70 71 71 70
28 31 30 31 29 37 39 38 39 42 42 42 42 42 43 42 41 41 40 43 44 43 45 51 56 60 63 67 66 63 66 65 66 67 68 69 69 70 69 70 70 70 71 69
33 35 32 31 36 37 39 40 42 43 42 44 44 44 44 43 42 43 43 44 47 47 45 47 47 50 55 61 64 67 69 68 66 66 67 67 68 69 69 69 69 69 68 69
32 33 32 32 36 37 39 39 41 44 44 44 46 47 46 44 44 44 44 45 46 48 48 48 48 48 49 52 57 60 64 69 69 68 67 66 66 68 68 68 68 68 69 69
35 33 31 31 37 38 38 41 42 42 43 44 45 45 47 47 45 45 44 45 44 44 48 48 47 48 48 48 49 54 58 62 65 66 67 68 71 70 68 67 68 64 64 65

GFSCGP_sfc_30mbdewp_072.txt.gz
Dewpoint
23 22 17 16 16 13 13 9 9 24 40 43 43 47 53 56 56 56 57 58 57 58 59 60 61 60 59 61 62 63 62 63 64 63 62 63 63 65 66 67 69 71 70 71
21 17 18 16 16 17 14 17 15 22 35 40 41 43 47 55 55 56 57 58 56 57 58 60 61 61 59 60 62 63 63 64 66 62 62 62 63 64 65 66 69 70 70 71
23 20 17 17 17 17 16 13 14 18 30 38 40 41 41 48 55 54 56 58 57 57 58 59 60 61 61 60 62 63 64 64 66 62 63 66 66 67 67 67 67 68 70 70
25 25 24 18 17 17 12 13 13 19 26 30 38 34 40 42 51 54 55 56 57 57 57 59 59 60 61 60 62 63 65 65 65 66 64 67 64 62 61 63 64 65 69 69
23 26 25 23 21 18 15 13 14 13 20 26 35 36 35 42 47 51 53 55 56 57 57 57 59 60 61 62 61 63 65 66 65 67 66 66 65 60 61 62 65 68 69 70
28 27 27 25 24 21 18 15 15 13 10 16 26 31 32 41 45 49 52 54 55 56 57 57 58 60 61 61 61 62 65 67 67 66 66 66 65 63 62 64 63 64 65 66
26 27 28 26 22 22 20 14 15 9 5 2 14 23 30 34 43 45 48 53 55 56 57 58 58 58 60 61 62 62 65 68 68 66 65 66 67 67 67 66 65 63 61 62
18 17 26 25 24 23 22 20 11 12 4 1 4 14 23 32 37 41 42 46 51 54 56 57 59 59 60 61 62 63 66 68 68 67 68 69 69 66 66 67 64 63 62 61
19 16 27 29 26 24 24 21 21 13 17 16 4 8 22 28 32 38 38 42 46 51 54 56 58 59 60 61 63 64 66 69 69 66 70 70 70 68 64 67 67 65 65 63
17 12 21 27 30 29 26 26 22 22 17 16 15 11 11 23 32 35 36 36 41 44 50 54 56 59 60 61 62 63 66 69 68 67 68 68 68 69 68 67 67 67 66 66
18 12 10 18 24 22 25 25 25 23 22 19 16 13 17 21 27 31 33 34 35 37 42 50 55 58 60 61 62 63 64 66 67 67 68 68 67 67 68 67 67 69 69 68
20 15 11 5 26 26 27 26 23 23 24 24 21 16 24 24 25 32 31 32 33 36 42 47 53 58 59 61 61 63 63 64 66 67 69 68 69 68 66 68 67 68 69 70
23 14 13 9 5 14 23 26 27 25 24 24 24 22 26 29 31 30 30 32 34 37 40 47 50 55 59 60 62 62 63 63 63 66 66 67 68 67 68 68 68 68 69 69
27 15 15 7 12 19 23 27 28 26 24 24 24 26 26 26 28 35 42 44 43 41 41 46 50 52 58 61 63 64 62 62 62 63 64 67 69 69 68 69 70 69 70 70
26 22 19 16 14 14 15 16 19 25 27 24 23 24 28 31 34 42 47 47 48 48 48 46 50 52 56 60 63 65 63 63 62 64 64 67 70 70 71 70 70 70 70 69
26 22 20 19 16 10 10 13 14 15 23 27 27 28 29 33 37 40 48 49 49 50 52 53 53 50 52 57 62 65 65 64 65 66 65 67 70 71 71 71 71 70 70 70
26 23 20 14 10 12 10 9 12 16 19 24 26 27 30 38 38 47 49 50 51 53 54 56 57 57 54 54 59 63 66 65 66 67 67 68 70 71 71 70 71 71 71 70
24 25 22 16 13 9 9 35 34 26 18 22 29 32 39 41 49 47 48 48 49 51 55 58 58 58 58 56 55 61 63 66 67 68 69 69 70 71 71 71 71 72 71 71
23 26 22 14 8 5 11 36 36 36 26 35 36 37 39 41 45 47 46 46 48 50 52 58 60 61 61 60 56 58 61 64 66 68 69 70 70 71 71 71 71 71 71 71
24 22 26 18 11 9 32 37 39 38 35 39 39 39 40 42 43 44 43 44 46 48 51 59 61 63 63 63 59 57 62 65 67 68 69 70 70 71 71 71 72 71 71 70
27 28 26 22 19 14 34 35 39 31 33 40 40 41 41 41 42 41 41 42 45 45 47 57 63 65 65 59 58 60 62 64 67 67 67 69 69 71 71 72 72 72 71 69
29 26 26 23 23 16 36 35 34 37 39 41 42 42 42 43 42 41 42 42 44 46 47 50 61 65 67 60 58 64 65 65 68 67 67 69 70 69 69 71 71 71 71 71
28 31 27 26 22 34 38 38 39 40 40 40 42 43 44 43 43 42 43 44 46 47 48 49 53 63 66 68 62 63 66 67 67 67 68 69 69 69 68 70 71 70 71 69
34 33 31 32 33 36 38 40 40 41 41 43 44 46 46 45 44 43 43 45 46 48 50 51 49 51 57 64 68 69 68 67 67 68 68 69 69 69 69 69 70 69 68 68
33 33 32 33 35 37 38 40 40 41 42 43 44 45 46 47 46 45 45 46 47 47 50 51 52 50 50 53 58 64 69 68 67 67 67 68 68 69 69 69 68 68 68 67
34 32 30 29 36 37 38 40 41 41 41 43 44 44 45 46 47 47 46 46 46 47 48 51 54 53 52 53 54 55 60 68 69 68 66 66 65 67 67 67 67 66 65 65

GFSCGP_sfc_30mbdewp_075.txt.gz
Dewpoint
33 25 20 20 20 12 7 5 5 14 32 38 40 43 56 53 52 54 55 56 55 56 57 58 58 58 57 57 59 61 62 65 65 64 63 63 62 63 63 63 66 68 68 69
23 21 20 17 16 15 10 10 8 7 16 36 39 40 49 51 52 53 54 56 55 56 57 58 59 58 57 57 60 62 64 66 66 64 63 62 63 62 62 63 66 68 68 70
23 19 19 17 15 14 13 12 11 12 16 27 36 38 47 56 56 53 54 56 55 55 56 57 59 58 58 57 60 63 65 67 67 63 64 63 64 64 62 65 65 67 67 68
22 20 21 16 16 15 12 14 12 11 12 24 33 31 36 54 59 51 52 54 54 53 56 57 59 59 58 57 60 63 65 67 67 67 62 64 62 60 61 62 62 66 67 67
18 22 22 23 19 16 16 14 11 10 13 17 25 29 28 39 45 48 50 52 54 54 54 56 58 59 59 58 59 61 66 67 67 67 64 64 64 61 61 60 67 67 69 67
25 19 19 21 23 22 21 16 13 12 9 7 18 25 27 33 39 46 49 50 52 54 54 55 57 59 59 60 58 60 66 68 68 68 68 67 65 63 58 60 63 64 65 67
19 25 23 22 22 23 23 19 14 10 9 6 5 16 30 30 40 43 47 50 51 53 54 55 56 57 59 60 60 60 66 69 69 68 67 68 69 68 66 66 61 61 60 60
13 14 20 23 23 21 22 17 14 11 7 2 2 5 20 29 39 44 46 49 50 52 54 55 56 57 59 60 62 63 66 69 70 68 67 68 69 64 63 66 62 60 59 59
7 12 20 21 25 22 20 19 18 12 11 8 1 2 7 18 28 42 48 47 50 52 53 55 56 57 58 60 63 64 66 69 70 68 69 69 69 67 63 67 70 65 64 60
12 15 19 21 25 25 22 23 18 18 14 11 10 7 3 10 21 30 36 41 45 49 51 53 55 57 58 59 61 65 66 69 70 68 70 69 69 70 69 69 70 68 67 66
14 13 11 15 23 23 23 23 24 21 18 15 13 14 16 10 21 27 30 37 40 42 47 50 52 55 58 59 60 62 65 68 69 69 69 68 69 69 70 68 70 69 69 69
17 13 11 8 9 14 18 20 21 23 22 19 17 16 19 15 16 25 31 33 36 37 42 45 49 53 56 59 60 61 62 64 67 68 69 69 70 69 69 69 68 70 71 72
22 17 13 9 8 8 17 21 25 20 22 22 19 19 27 26 25 26 29 31 33 36 37 39 44 51 55 58 61 61 62 62 64 68 68 69 70 70 69 70 70 69 71 72
25 21 18 10 10 14 13 12 21 24 21 20 22 21 26 27 28 35 41 44 44 43 40 42 44 49 55 58 62 63 62 62 63 64 65 68 70 70 70 70 71 71 71 72
22 20 19 18 16 15 13 17 21 25 26 25 23 23 27 29 28 41 45 45 46 46 47 43 45 47 53 58 63 64 62 64 63 65 65 67 70 71 71 70 71 72 72 72
24 24 24 20 21 16 15 13 14 17 20 22 27 27 30 32 37 37 38 46 47 47 50 51 51 51 52 55 60 64 65 64 65 66 65 67 70 71 71 71 71 72 72 72
27 28 24 22 18 15 14 14 10 11 13 16 21 28 30 31 34 44 48 49 48 49 51 54 56 56 55 53 57 62 66 65 65 67 66 67 70 71 72 72 72 72 73 73
19 25 28 27 20 16 11 15 19 20 16 14 18 21 26 32 40 42 48 47 48 50 51 53 55 57 57 56 54 58 62 67 67 67 68 68 70 71 72 73 73 73 73 73
17 17 27 24 17 16 13 34 34 32 22 36 18 19 27 40 41 40 43 47 47 50 51 52 55 58 60 61 59 57 61 64 68 68 69 69 70 71 73 73 73 73 73 73
20 17 17 18 20 15 30 36 37 37 25 40 40 40 41 41 38 42 45 44 46 49 51 53 55 60 61 62 62 60 58 63 68 68 69 71 71 72 73 73 73 74 74 73
28 26 22 19 19 16 30 32 35 30 30 40 41 41 41 41 43 45 44 44 46 49 50 53 55 61 64 66 66 64 61 62 66 68 69 71 72 73 73 74 74 74 73 71
28 28 28 26 23 17 32 31 28 37 40 39 39 41 42 43 44 44 45 45 45 48 49 53 53 60 63 68 70 66 65 64 68 68 69 71 72 72 71 74 74 74 74 73
29 32 30 30 24 25 35 35 37 37 38 40 40 41 43 44 44 44 44 45 45 46 48 51 52 54 55 61 69 62 66 68 68 70 70 71 72 72 71 73 74 73 74 70
34 36 32 32 26 29 36 36 40 41 40 41 41 42 43 45 46 45 44 45 46 46 48 50 51 53 54 57 59 62 65 67 68 70 71 71 71 72 71 71 72 70 69 69
34 35 33 33 34 37 37 38 41 40 41 41 41 42 43 44 46 47 46 46 46 47 49 51 52 52 54 56 56 57 58 61 69 69 68 70 70 70 71 70 68 69 68 67
35 32 30 29 35 35 36 40 40 40 40 41 41 42 43 44 45 47 48 47 46 47 51 50 54 53 53 54 54 56 57 57 65 69 69 68 67 69 69 68 68 65 66 66

GFSCGP_sfc_30mbdewp_078.txt.gz
Dewpoint
36 31 28 27 23 22 15 9 4 8 17 23 28 49 52 52 53 57 58 54 56 57 57 57 57 58 57 57 62 65 64 69 68 68 67 67 66 68 68 69 72 71 70 71
31 29 28 19 20 20 19 12 8 6 8 19 33 49 51 51 48 56 59 55 54 56 57 58 58 58 58 58 62 64 65 69 67 69 68 67 67 66 67 69 70 68 70 72
23 23 26 23 18 17 16 13 9 9 9 11 27 49 50 51 52 57 58 55 54 56 58 58 58 58 58 59 63 64 67 69 68 67 67 68 67 67 65 70 69 70 70 71
26 25 21 18 18 16 13 13 12 11 10 9 14 18 53 55 56 55 55 56 53 53 58 58 57 58 58 59 63 65 67 69 68 69 65 65 65 64 65 66 69 70 70 71
19 23 21 18 17 17 16 15 13 11 11 10 11 22 26 54 51 48 51 57 52 51 56 57 58 58 58 60 62 66 67 70 67 68 68 67 66 64 67 65 67 70 71 71
22 21 18 19 20 21 18 16 16 13 9 7 10 13 22 49 46 43 48 55 54 51 53 56 58 59 59 60 61 65 67 68 68 68 69 68 65 67 64 65 67 69 70 70
10 16 22 17 18 20 22 17 15 13 10 7 6 10 19 34 51 49 47 53 53 53 53 55 56 58 60 60 60 63 67 67 69 69 67 70 66 67 69 65 67 65 68 68
8 11 13 22 19 17 20 20 17 14 9 7 8 6 8 17 24 50 53 49 53 54 53 55 57 58 60 61 61 61 67 68 69 69 67 68 70 67 68 68 63 66 64 65
11 2 7 18 21 21 21 20 21 17 15 11 7 8 8 10 21 41 47 51 53 56 54 55 57 59 61 61 62 62 67 69 69 68 69 67 71 70 65 67 70 65 65 68
14 10 10 16 20 20 21 22 19 19 15 15 11 12 8 9 14 36 44 48 51 57 58 54 56 58 60 61 63 64 66 69 70 69 69 68 68 70 69 65 70 69 69 67
17 13 11 10 18 21 23 21 20 20 17 15 14 12 15 15 14 18 45 53 57 60 60 57 56 57 60 61 62 64 65 69 70 70 69 68 68 68 68 69 69 70 69 70
20 18 14 11 12 14 22 23 21 22 23 21 18 16 26 23 13 15 24 45 48 51 63 62 57 57 59 60 61 64 65 67 70 70 70 68 69 68 67 66 71 71 72 73
25 21 17 14 12 9 9 11 18 20 23 25 19 17 22 25 19 15 20 27 42 48 57 59 58 55 58 60 61 62 64 65 68 70 70 69 69 69 68 67 69 71 70 72
22 20 20 18 16 18 15 7 13 17 19 20 23 23 28 30 41 40 44 46 46 48 45 45 48 53 56 60 61 62 63 64 66 69 69 69 69 70 69 70 68 69 72 72
22 17 18 19 19 21 18 15 13 12 19 21 24 24 37 42 45 44 45 46 45 47 51 54 55 56 56 61 63 63 63 63 64 66 68 69 70 70 71 71 71 70 70 71
26 24 24 23 20 22 20 19 14 14 20 27 27 29 41 41 41 44 50 49 49 50 52 55 58 59 59 63 64 64 64 64 65 66 67 69 70 71 71 71 71 71 71 71
19 33 25 22 19 19 17 18 15 14 16 20 21 24 27 38 40 48 49 50 48 50 52 53 54 55 59 60 66 65 65 65 66 67 67 69 70 71 71 72 71 71 72 71
17 17 30 22 22 23 23 18 20 15 16 13 13 16 19 34 44 45 46 49 48 49 51 52 52 53 56 60 61 63 66 66 67 68 69 69 69 71 72 72 72 71 72 72
19 19 21 25 17 25 25 32 34 33 21 35 38 40 40 42 40 47 47 46 46 48 50 52 54 55 57 61 62 63 64 66 66 67 69 70 69 70 72 72 72 72 72 72
31 29 21 15 20 18 30 30 33 28 27 38 40 40 41 42 31 43 45 46 46 47 50 52 55 56 59 64 66 66 66 64 68 67 69 70 70 70 71 72 72 73 73 73
28 33 30 23 17 15 32 36 33 25 30 38 38 39 40 40 42 43 44 45 47 47 48 51 54 55 57 59 63 66 71 70 65 69 69 70 72 70 72 73 73 73 73 73
28 29 29 28 24 20 31 31 27 34 36 35 37 38 38 40 42 43 44 45 46 47 47 49 52 54 57 58 60 62 66 66 73 69 70 70 71 72 72 73 74 74 74 73
29 32 29 30 31 32 36 39 42 37 35 36 39 39 39 39 41 44 46 45 46 47 47 48 50 54 56 57 57 58 60 63 65 69 71 71 72 72 71 73 73 74 74 73
32 35 32 31 26 31 35 37 42 41 40 41 40 39 39 39 40 43 45 46 46 47 47 49 50 51 53 56 55 57 59 61 64 72 72 72 72 73 73 72 73 73 73 73
34 35 32 30 31 36 33 37 39 40 40 40 40 40 40 40 41 43 45 46 47 47 47 50 50 52 52 55 55 56 58 60 62 70 71 72 72 72 73 72 73 73 73 73
37 34 31 29 35 35 35 39 39 40 40 40 39 40 40 41 42 43 45 47 47 47 48 49 51 53 52 54 55 55 56 57 59 63 66 70 70 71 71 72 71 67 71 68

GFSCGP_sfc_30mbdewp_081.txt.gz
Dewpoint
35 34 33 31 30 27 26 24 18 14 13 22 32 58 59 60 58 60 60 60 56 56 58 57 57 58 60 63 63 64 66 67 69 67 66 67 68 67 67 70 69 72 72 70
36 34 33 32 29 27 23 21 21 17 13 15 48 54 56 56 53 57 57 55 59 56 57 59 57 57 60 61 64 65 67 68 69 67 68 67 67 68 68 69 72 71 72 70
27 31 33 30 28 21 19 20 18 16 14 13 47 50 50 50 52 53 58 57 59 59 56 58 57 56 59 60 64 66 68 68 70 67 68 68 69 66 70 68 71 70 72 71
29 28 24 25 26 24 18 18 17 14 12 11 15 34 49 50 53 55 57 59 61 62 59 58 58 57 57 62 63 68 69 68 69 68 66 66 67 65 68 70 69 71 70 71
22 23 24 25 23 20 19 20 17 17 13 11 11 12 45 50 52 54 57 53 56 61 60 57 57 58 58 62 62 67 69 68 67 69 65 66 65 65 68 67 68 70 70 72
20 22 22 21 22 21 20 18 18 17 17 11 10 12 38 50 48 47 57 57 61 60 58 57 57 58 59 62 63 64 69 67 67 67 69 66 65 66 67 66 67 69 70 72
14 16 18 19 21 19 20 21 18 15 15 14 13 9 10 51 52 50 54 57 54 57 57 58 57 57 59 60 64 64 68 68 66 66 67 70 65 65 67 69 69 68 68 69
7 5 12 15 21 20 18 19 20 15 15 15 15 11 9 25 52 51 52 52 51 56 57 58 58 57 59 60 63 65 65 68 67 66 66 68 69 66 67 70 69 68 68 67
15 13 15 13 11 20 20 19 20 19 19 18 18 16 14 12 25 49 45 48 53 56 53 57 58 58 59 60 61 65 66 66 68 67 65 67 70 66 66 67 69 68 68 68
18 14 14 14 14 16 22 22 20 19 17 18 19 19 19 12 11 45 50 51 56 58 56 58 60 59 59 60 61 63 67 66 68 67 66 65 68 71 68 67 68 68 65 68
23 21 18 17 13 14 16 21 21 21 21 18 17 18 21 35 26 41 49 53 56 56 61 58 62 63 63 60 61 62 67 67 67 67 68 65 65 70 71 68 65 70 69 72
23 22 20 20 20 17 15 11 24 24 22 24 25 22 38 43 46 39 48 51 55 59 61 60 62 62 62 61 62 61 67 67 67 68 67 68 65 67 69 69 68 68 69 70
21 22 19 18 16 20 21 20 20 23 21 22 24 26 39 41 42 49 51 54 57 58 58 56 57 60 61 61 63 62 64 67 68 68 67 68 67 65 67 67 68 68 72 70
20 18 17 17 19 20 19 20 22 20 13 22 23 24 35 40 43 50 53 54 57 57 57 57 58 59 60 63 64 62 63 67 68 69 69 68 67 67 65 65 65 69 70 72
23 19 20 21 20 20 19 19 22 22 18 14 17 23 35 42 48 50 51 53 55 56 57 59 60 61 63 66 65 62 64 64 68 69 69 69 68 68 68 67 67 63 71 69
27 24 27 23 24 21 21 20 20 21 20 16 16 27 37 46 50 50 50 51 50 52 53 53 56 63 66 67 67 67 65 64 67 69 69 69 69 69 69 69 68 67 64 71
22 29 26 23 22 21 21 21 22 21 21 21 16 38 35 45 48 50 50 49 49 50 53 52 54 56 59 65 65 63 63 66 66 67 69 69 69 70 69 70 70 70 68 66
18 21 29 23 24 18 20 24 29 30 36 39 40 41 43 49 51 51 51 49 48 49 51 52 54 55 59 64 65 66 65 62 66 67 68 69 70 70 70 69 70 70 71 70
30 29 24 21 21 22 22 30 33 30 34 38 39 40 40 42 46 44 46 47 47 48 50 51 53 55 58 58 63 66 65 64 69 68 67 69 69 70 70 69 70 70 70 71
30 31 30 24 22 20 29 32 33 31 29 37 37 38 39 41 39 42 43 45 46 47 49 49 51 55 58 58 60 62 63 66 65 67 70 69 69 70 70 71 70 71 71 70
28 32 29 27 25 24 34 38 35 22 34 41 37 38 38 38 40 42 44 45 46 48 49 48 51 53 56 58 57 57 60 60 61 62 65 72 70 70 71 71 72 71 71 71
28 29 28 31 25 23 35 37 35 40 41 40 41 40 39 39 39 41 43 45 47 47 49 48 50 51 56 57 55 54 56 58 59 61 63 71 72 70 71 71 72 72 72 71
30 32 29 29 30 32 35 35 39 39 40 40 40 40 40 39 39 39 41 43 46 47 48 49 50 52 54 55 56 53 55 57 58 60 62 70 72 71 70 72 72 72 72 72
36 34 32 30 29 33 34 36 37 38 38 39 39 39 40 40 40 40 42 42 45 47 48 49 50 51 54 54 56 55 56 57 58 59 61 72 71 72 71 72 72 73 72 72
35 34 32 32 32 32 34 36 38 38 38 39 39 40 39 39 40 41 42 42 44 47 48 48 50 51 54 55 55 53 55 57 57 59 60 66 72 72 72 72 73 73 73 73
36 33 29 28 34 34 35 37 38 37 38 38 39 39 39 39 38 40 41 44 46 47 49 48 51 54 54 54 53 53 53 56 57 57 60 59 64 67 72 72 71 69 71 72

GFSCGP_sfc_30mbdewp_084.txt.gz
Dewpoint
34 34 33 37 34 31 29 27 25 25 23 17 49 58 58 57 61 59 60 59 59 57 57 56 56 61 63 64 63 65 65 66 68 66 66 68 66 69 69 69 70 72 71 71
34 33 35 34 32 30 28 27 24 22 21 16 53 57 59 59 61 56 57 60 59 57 57 56 56 60 63 62 63 65 65 65 68 67 66 67 67 68 68 69 69 71 72 71
35 35 36 34 32 30 27 24 22 20 20 51 54 54 58 60 60 61 59 60 59 57 57 56 56 58 63 62 64 65 66 65 67 67 67 68 69 68 67 69 70 72 72 71
33 32 27 32 31 29 26 25 21 19 16 13 39 34 51 55 55 57 60 59 59 59 58 58 56 57 61 62 64 66 66 67 67 67 66 66 67 64 68 67 70 70 72 70
20 25 27 25 25 26 26 25 21 18 17 14 13 13 42 51 50 52 56 58 58 59 60 59 57 57 60 62 63 67 66 67 68 67 65 66 66 66 68 69 68 70 71 70
16 21 21 22 22 23 22 20 20 20 17 14 14 11 39 49 50 50 52 57 59 59 60 60 58 57 59 60 64 67 66 67 68 67 65 64 65 66 67 67 68 69 70 71
11 12 14 15 17 21 20 21 18 15 14 13 17 14 13 48 49 50 51 55 56 58 58 60 59 57 58 60 62 67 66 66 67 68 66 64 65 65 67 67 67 68 70 71
13 8 14 14 13 14 19 19 19 15 15 15 19 14 13 20 49 50 53 55 51 55 58 59 60 58 57 60 61 65 67 65 65 67 68 67 65 65 67 68 67 68 69 69
14 12 17 18 17 14 19 19 20 18 20 18 19 20 22 44 43 48 50 55 54 58 60 58 59 58 58 60 61 62 67 66 65 65 65 67 69 66 66 69 70 68 68 68
22 14 18 19 16 19 16 16 19 20 16 16 19 20 22 42 47 51 50 52 57 56 58 59 59 59 59 60 62 62 65 66 66 65 64 64 66 70 66 67 68 68 68 68
23 20 18 18 19 19 17 20 19 24 21 18 17 21 41 45 50 51 51 50 55 54 58 59 60 60 60 61 62 63 63 65 67 66 64 63 64 68 69 66 66 69 67 68
20 22 18 19 22 22 19 20 21 20 22 24 22 29 41 48 51 52 54 50 52 57 60 62 62 64 63 61 62 64 65 64 66 66 66 64 64 65 69 69 66 66 69 70
18 20 16 13 19 20 19 19 20 22 21 20 21 24 47 49 51 52 54 59 59 60 59 59 62 64 63 63 62 64 65 66 65 67 66 66 63 63 66 69 69 66 67 69
22 18 17 16 20 20 21 22 22 21 20 20 18 18 46 49 50 51 51 53 54 55 56 58 59 61 62 63 64 63 64 66 67 66 66 66 66 63 62 67 68 69 68 69
22 19 22 24 22 23 21 21 22 21 20 19 19 19 47 49 50 51 52 52 53 53 54 56 58 63 62 65 66 66 65 66 68 68 67 66 67 66 63 62 67 66 69 70
29 23 24 21 23 22 19 19 22 22 26 30 29 32 45 50 49 50 51 52 52 52 52 54 57 58 60 63 66 66 67 66 68 68 67 67 67 67 66 63 63 66 64 70
22 24 23 20 22 19 11 22 29 31 39 39 38 40 41 50 48 48 49 50 52 52 51 52 54 57 59 61 65 66 64 64 66 68 68 68 68 67 67 68 65 64 64 61
20 26 28 23 19 13 14 24 33 37 36 37 37 38 39 43 46 44 45 46 48 52 50 50 52 56 59 60 60 64 67 66 64 64 68 70 69 68 68 67 68 67 67 64
31 29 25 21 19 20 21 35 36 32 34 39 40 38 38 39 43 42 44 45 45 49 51 49 51 53 56 58 59 60 64 65 65 66 66 66 70 69 69 68 68 68 68 68
30 33 28 24 20 18 31 35 39 34 29 39 41 38 38 38 37 39 42 44 46 47 50 49 50 51 54 57 56 57 58 60 60 62 63 65 65 71 70 69 69 69 69 70
27 30 27 28 26 29 33 35 37 27 31 40 40 40 39 38 38 39 41 41 43 46 49 50 49 50 52 56 56 52 54 55 58 60 62 64 65 67 70 70 69 69 70 69
26 26 27 28 28 24 34 33 28 37 39 40 40 39 39 39 39 39 40 40 42 44 48 50 50 49 52 55 56 54 52 54 57 59 61 63 65 67 70 70 70 69 70 70
28 30 26 29 26 35 36 35 36 37 36 37 38 39 39 39 39 40 40 40 42 43 46 48 50 50 51 54 56 53 52 55 56 58 59 62 63 67 71 70 70 70 70 70
35 35 30 29 27 33 35 36 37 37 37 37 37 38 38 38 38 39 39 39 41 43 45 48 48 50 51 54 55 53 53 54 56 57 59 60 60 69 71 71 71 71 70 70
34 34 31 31 31 31 34 34 36 36 37 37 38 37 37 38 38 39 39 39 40 42 45 48 48 48 51 54 53 53 51 52 54 56 58 59 60 63 71 71 71 71 71 71
35 31 28 23 30 29 29 33 37 36 36 37 36 37 37 35 35 39 39 38 39 40 45 48 48 51 52 52 51 50 51 52 53 55 57 58 59 60 63 71 71 69 70 71

GFSCGP_sfc_30mbdewp_087.txt.gz
Dewpoint
29 32 34 36 35 33 29 28 27 27 26 33 47 52 56 58 61 60 60 58 58 59 56 57 58 62 64 64 64 65 66 66 68 66 67 68 68 69 70 70 69 70 71 71
34 33 34 35 35 32 30 28 27 26 23 21 43 54 56 59 60 60 60 59 58 57 57 56 57 62 64 64 64 66 66 66 68 66 67 68 67 69 69 69 69 71 71 71
33 34 36 35 34 31 29 27 27 25 27 56 53 53 56 57 59 62 59 60 59 58 56 56 56 62 63 63 64 66 66 65 67 66 66 68 67 68 67 69 69 70 72 71
33 34 33 31 32 32 29 29 27 23 17 15 43 36 53 56 56 59 60 58 60 60 57 56 56 61 62 63 63 64 65 65 66 67 65 65 67 65 67 67 69 70 72 70
29 25 30 27 26 31 29 29 26 23 17 15 14 16 40 55 56 56 58 59 59 60 58 56 56 60 62 62 63 64 65 65 66 67 66 65 66 66 67 67 68 70 71 71
18 20 22 22 23 26 26 22 21 19 17 14 14 13 22 52 53 53 55 57 60 59 60 57 56 57 61 62 63 64 65 65 66 66 66 64 65 66 66 68 67 68 70 71
11 13 14 14 15 20 21 20 17 14 14 13 16 14 16 37 52 54 53 54 57 60 59 59 57 56 59 61 63 64 65 65 66 65 65 64 64 65 65 67 68 68 69 70
10 9 15 18 14 13 19 19 18 14 14 16 19 13 32 45 48 51 51 52 55 57 59 59 60 57 58 60 62 64 65 65 66 66 65 65 64 65 65 67 67 68 69 69
14 13 19 19 19 17 16 17 19 19 20 18 19 20 34 48 50 52 52 52 51 54 57 59 60 58 57 59 62 64 65 65 66 66 66 65 65 64 65 67 68 68 68 69
22 13 19 19 18 19 19 19 18 19 15 15 19 29 41 48 51 54 57 57 54 54 55 57 60 60 57 59 60 64 65 65 65 66 66 66 66 66 65 66 68 69 68 68
23 18 16 18 19 20 19 19 21 24 21 16 17 37 46 49 51 52 54 58 55 55 55 58 59 60 59 59 60 61 65 65 65 65 66 65 66 68 67 66 66 68 69 68
21 21 16 18 21 21 22 20 20 19 18 22 23 37 47 49 50 52 52 53 56 59 61 63 64 64 64 62 61 61 63 65 65 65 64 64 64 65 67 67 66 66 67 68
17 18 9 15 18 22 20 22 21 22 21 19 20 29 48 51 51 50 50 52 54 56 58 62 63 62 64 64 63 64 64 64 65 65 64 64 63 63 65 67 68 66 66 67
22 19 16 8 18 21 21 22 22 21 19 19 19 23 47 49 51 52 52 50 51 53 56 58 60 60 63 64 64 64 65 66 65 66 66 65 64 63 63 64 68 69 67 66
21 20 22 22 23 23 20 19 20 20 21 20 23 41 42 47 49 51 53 53 51 51 52 56 58 59 60 61 67 67 66 65 67 66 66 66 66 64 63 63 64 68 68 68
27 26 23 18 23 20 21 28 24 26 34 29 32 40 40 47 46 46 48 53 52 52 51 52 56 58 59 59 60 63 65 67 68 67 67 67 66 66 64 62 62 65 66 68
23 24 20 16 23 17 17 25 35 36 37 39 37 37 39 44 43 44 45 45 50 51 52 51 53 55 59 58 58 59 65 65 67 68 68 68 67 67 67 64 62 62 65 65
24 25 25 19 18 7 17 36 36 37 38 38 38 39 37 38 42 42 43 43 46 50 51 52 52 53 55 58 56 58 61 67 66 69 69 69 69 67 67 67 65 62 63 64
27 24 24 20 17 19 26 32 35 33 34 40 39 39 38 39 40 42 39 42 41 45 52 52 51 52 53 57 56 55 56 59 63 66 64 65 65 67 69 68 67 67 64 63
32 31 27 23 19 17 27 31 35 37 29 39 40 39 39 38 33 38 39 40 41 43 47 52 53 50 53 55 56 55 54 55 56 58 61 63 65 65 66 70 68 68 68 66
25 27 24 26 24 27 33 32 34 28 28 39 39 39 39 38 38 39 40 40 41 42 43 48 51 51 50 53 56 54 53 53 55 57 59 61 63 66 65 65 70 70 69 68
24 23 27 28 27 22 33 31 23 34 37 37 37 38 37 38 38 38 39 40 40 40 42 44 48 51 52 53 56 53 51 52 54 56 58 59 61 63 66 66 68 71 70 69
26 28 24 26 23 33 34 31 36 35 33 34 35 36 37 37 38 38 39 39 39 39 40 42 46 49 52 52 55 52 51 51 52 54 56 57 60 62 64 66 68 71 70 69
34 34 29 27 26 33 35 36 35 37 36 36 36 37 37 36 36 35 36 37 38 39 39 41 44 47 49 52 54 53 51 51 52 52 54 56 59 59 61 65 70 70 70 69
32 33 31 30 30 32 33 35 34 35 37 36 37 37 36 36 36 35 34 36 38 39 39 39 41 45 48 50 53 52 50 50 50 52 53 55 58 59 60 63 69 71 71 71
34 32 29 27 28 27 28 34 35 36 36 36 36 36 36 36 36 36 37 35 36 37 38 39 40 43 48 51 52 50 50 49 50 50 51 52 55 58 60 62 63 70 69 70

GFSCGP_sfc_30mbdewp_093.txt.gz
Dewpoint
26 27 31 37 38 35 31 28 27 28 48 54 48 49 55 60 61 61 60 60 60 59 60 62 63 64 64 63 64 66 67 69 69 69 68 68 68 70 71 71 71 71 70 72
26 27 34 37 37 32 31 31 28 27 38 47 35 38 54 58 60 61 61 60 60 59 60 61 62 62 63 63 63 66 67 69 69 69 69 70 70 70 71 71 71 70 71 73
24 30 36 35 36 34 33 32 28 24 26 49 50 47 54 58 60 61 62 61 61 60 60 60 61 61 63 63 64 65 67 68 69 69 70 70 71 71 70 70 70 71 69 71
31 36 35 34 34 34 33 32 29 28 24 18 45 21 49 54 57 60 61 61 60 61 61 60 60 60 61 63 64 65 67 68 69 70 69 69 66 66 67 69 70 70 72 71
32 33 35 34 34 34 32 32 30 27 24 19 36 20 36 55 53 52 58 61 61 60 60 60 59 60 61 62 63 65 67 68 68 69 69 69 68 67 68 69 70 71 73 73
19 19 25 30 28 31 30 25 22 22 20 16 18 15 38 44 48 51 53 54 60 61 60 59 59 60 60 62 63 64 66 68 68 69 69 69 69 68 67 68 68 69 71 72
14 16 17 19 18 26 27 23 19 17 16 15 18 28 46 50 52 53 54 56 57 57 61 60 59 59 60 61 63 63 66 67 68 68 68 68 68 69 69 69 67 68 68 69
15 13 17 20 19 19 24 22 18 16 15 14 21 32 46 50 52 54 56 57 58 58 57 61 60 59 59 62 63 64 66 67 67 67 68 69 69 67 67 69 67 67 67 68
15 15 19 21 21 21 21 20 20 19 20 15 19 36 45 47 50 52 54 56 57 61 58 59 61 60 59 61 63 64 65 67 67 67 68 68 69 68 66 69 70 68 70 69
20 15 19 20 21 21 21 22 19 20 17 14 31 37 40 47 49 50 52 55 57 59 59 57 60 60 59 61 63 64 65 66 67 67 67 67 67 68 68 69 69 69 69 71
21 18 18 20 20 21 20 20 24 23 22 17 22 37 47 50 51 50 50 53 57 59 60 63 64 62 60 61 63 64 64 65 66 66 67 67 66 67 68 67 68 69 70 71
23 18 18 19 21 23 22 22 22 21 23 24 26 37 51 51 51 52 49 50 53 57 58 59 61 62 64 63 63 64 63 64 65 66 68 67 67 67 66 67 66 68 69 71
19 15 17 17 19 21 20 19 22 22 23 27 21 35 49 49 48 49 50 50 51 53 56 57 57 58 59 62 65 65 64 63 64 67 66 67 67 67 67 67 67 67 68 69
23 19 14 11 19 21 19 16 19 21 21 23 26 41 46 45 46 46 49 50 50 51 52 54 56 57 56 57 60 62 66 66 66 65 65 66 67 67 67 67 68 68 68 67
22 18 21 21 20 19 17 16 16 20 22 22 36 41 45 44 44 44 45 47 49 50 50 50 52 55 57 56 56 59 61 66 68 67 66 65 67 67 67 67 68 68 68 68
27 22 21 19 21 22 24 27 23 26 32 37 40 42 44 43 42 42 43 45 45 46 49 50 50 51 53 57 56 56 58 61 67 68 67 67 67 67 67 67 67 67 68 68
25 24 18 15 22 20 14 25 32 36 38 37 37 39 42 40 39 39 39 40 41 43 43 44 49 49 51 53 57 56 57 58 61 61 65 69 68 68 68 67 67 67 67 67
25 24 25 18 18 11 22 36 36 36 38 38 38 38 39 39 39 41 40 40 40 40 41 41 41 43 48 52 52 57 55 57 56 58 59 61 63 69 69 68 68 67 67 67
27 25 25 20 16 18 27 34 36 32 36 39 38 39 39 38 37 40 41 39 38 39 40 42 41 40 43 49 51 54 56 54 55 55 56 59 61 62 64 69 69 69 67 67
30 30 26 23 19 13 23 33 37 36 26 39 39 37 35 32 28 37 38 35 36 37 38 40 41 41 41 42 47 52 54 55 52 54 56 58 60 61 62 64 66 69 69 67
29 31 26 25 21 21 30 32 35 25 27 38 36 35 34 29 31 34 35 36 36 36 36 38 38 39 41 43 44 49 52 53 54 53 55 57 58 59 61 63 65 66 68 70
25 26 28 29 25 18 32 33 31 36 38 35 32 32 31 32 33 34 34 34 35 35 36 37 37 37 39 40 42 44 48 52 55 54 53 55 56 57 60 61 61 63 67 66
27 29 30 29 25 34 33 31 36 33 33 33 32 32 34 34 34 34 35 35 35 36 36 37 37 37 38 40 42 42 45 48 52 54 53 53 55 56 58 59 60 62 64 66
33 33 31 28 28 31 34 36 36 35 31 33 33 34 36 34 35 35 35 35 35 35 35 37 37 37 38 39 40 41 42 45 49 53 53 52 53 55 54 56 58 61 62 64
33 34 33 31 31 32 32 35 36 36 35 34 34 35 35 36 36 35 36 37 37 36 36 37 37 37 37 39 40 41 42 44 48 51 52 52 51 53 53 54 56 56 60 63
35 36 33 30 32 33 31 34 37 36 36 34 34 35 36 37 37 38 38 38 37 36 37 38 38 38 38 38 39 41 43 44 46 49 50 50 50 50 50 53 53 57 58 59

GFSCGP_sfc_30mbdewp_096.txt.gz
Dewpoint
22 23 22 28 31 34 36 32 31 38 49 49 47 45 54 58 58 58 59 59 58 57 56 58 61 61 59 58 61 63 65 68 68 67 65 66 66 69 68 69 70 71 70 71
19 21 24 32 36 36 35 30 29 29 43 45 32 33 44 56 56 58 59 59 59 58 55 57 61 61 61 59 62 64 65 69 69 68 68 66 67 68 67 69 70 69 69 69
16 19 30 36 37 33 35 31 29 28 30 34 40 43 50 53 55 59 60 60 60 58 56 55 58 61 61 60 61 64 66 68 69 68 70 71 70 70 68 70 68 68 69 68
19 28 32 36 35 33 29 35 30 25 24 30 40 33 44 51 55 59 60 60 60 59 58 57 58 60 61 61 61 62 66 68 69 70 68 68 63 62 64 66 68 67 67 68
23 31 33 33 34 35 30 34 32 26 24 22 30 28 43 49 49 51 58 60 60 60 60 58 57 59 59 61 61 62 66 67 67 69 69 69 66 62 63 66 71 69 69 68
29 33 35 33 35 35 32 31 29 27 22 19 27 26 40 45 51 51 54 55 60 61 60 60 58 58 59 60 61 62 65 68 69 69 70 69 66 65 65 65 69 68 67 68
26 28 23 24 31 33 29 24 21 22 18 15 20 20 46 48 52 53 54 55 56 57 61 60 59 58 59 60 61 62 64 68 69 68 69 69 69 69 67 67 63 65 65 65
17 20 23 20 24 28 26 22 17 16 14 14 19 27 46 48 51 55 56 57 59 59 57 61 61 59 59 60 62 63 64 67 68 69 69 69 70 69 67 66 62 65 63 65
18 17 18 20 21 22 25 23 20 17 17 13 22 43 45 47 49 52 54 57 59 61 56 57 60 60 59 60 61 63 65 67 68 68 69 69 70 70 65 65 66 65 66 65
20 17 18 19 20 21 23 23 19 18 15 14 19 35 41 46 48 51 53 55 58 60 62 58 60 61 60 60 61 63 66 68 68 68 68 68 69 70 69 67 67 65 66 68
18 19 17 19 21 22 21 21 22 19 18 14 19 33 48 49 51 50 51 53 56 58 60 61 62 65 63 61 61 63 64 65 67 67 67 68 68 68 69 67 67 68 69 69
21 17 16 18 21 22 22 24 25 19 20 19 20 42 50 50 51 51 51 52 52 55 57 58 59 61 63 65 63 63 63 64 65 66 67 67 69 69 67 67 66 67 68 70
20 16 15 15 17 21 20 21 22 23 22 19 16 41 50 49 49 50 50 51 51 51 53 55 56 56 58 60 64 66 64 63 63 64 66 67 68 68 68 67 68 67 67 68
22 18 18 13 18 20 18 15 19 21 19 19 22 44 47 48 48 48 50 50 50 50 50 50 52 55 56 57 58 61 65 67 65 64 65 66 67 68 67 69 68 68 68 68
21 20 19 18 17 16 16 15 13 19 24 22 34 43 46 46 47 48 49 49 48 49 50 50 49 51 53 56 57 57 59 63 67 67 66 66 67 69 68 69 68 68 69 68
23 22 20 17 16 15 14 19 17 18 24 30 42 43 45 45 45 45 45 46 47 46 46 46 47 49 50 52 54 56 57 59 62 66 67 68 68 68 68 68 69 69 69 69
21 21 19 12 16 14 9 15 18 22 29 32 38 42 44 42 42 42 42 42 42 42 43 42 42 43 46 50 52 54 55 57 59 61 63 66 68 69 69 69 68 68 69 69
21 20 17 12 15 5 23 26 25 26 31 37 41 43 43 43 43 43 42 41 40 40 40 41 40 40 40 43 49 53 54 55 55 57 59 61 63 64 67 70 70 70 69 68
25 20 16 14 9 16 21 29 28 27 31 34 38 40 40 40 39 42 42 40 39 39 38 39 41 41 42 41 41 45 52 54 54 54 55 57 59 61 62 65 68 68 70 69
24 26 22 17 12 9 19 26 31 30 24 35 36 38 37 36 32 39 40 36 35 35 36 36 37 37 39 42 42 43 45 51 54 54 54 56 57 59 61 62 63 66 68 70
26 25 22 20 17 14 28 32 33 22 28 35 36 36 35 31 32 34 33 33 34 35 35 36 37 37 38 40 41 43 44 45 51 54 56 55 55 57 59 62 63 63 65 68
28 27 28 26 23 18 30 31 27 35 37 36 34 32 30 30 30 32 33 34 34 35 35 36 36 37 38 39 41 42 44 46 49 49 53 55 56 54 53 57 61 62 63 63
28 28 30 25 25 33 31 33 37 35 34 32 31 30 30 29 31 33 34 34 34 34 35 35 36 37 38 39 41 42 44 45 46 47 48 52 55 55 54 54 54 59 61 63
29 32 26 28 23 30 31 34 34 31 30 31 31 31 32 32 32 33 33 33 34 35 36 36 36 37 38 39 40 42 43 44 44 45 47 49 51 54 54 53 50 51 54 56
32 33 30 28 28 31 34 34 34 34 32 31 31 32 32 33 33 32 32 33 35 36 36 36 37 38 39 40 41 42 42 43 44 44 45 47 48 50 52 52 53 53 54 54
35 35 32 28 26 29 28 32 34 35 35 33 31 32 34 34 33 34 34 35 35 36 37 37 37 38 39 40 41 42 44 43 43 43 43 44 45 47 48 50 49 51 53 54

GFSCGP_sfc_30mbdewp_102.txt.gz
Dewpoint
26 19 16 19 22 30 31 33 37 40 52 52 52 56 57 58 61 53 51 50 50 53 53 52 52 54 57 61 63 64 68 69 69 68 66 68 67 69 69 71 70 70 71 69
20 15 15 16 22 23 25 33 36 50 52 52 53 53 56 58 58 58 51 51 53 55 53 53 52 54 57 61 63 65 69 69 70 68 69 70 68 69 70 70 71 71 70 70
19 13 14 14 17 19 22 28 34 52 47 48 50 52 52 57 57 61 55 52 54 57 56 53 54 54 56 61 63 66 70 69 71 68 71 66 68 69 69 69 70 70 70 69
18 17 13 15 17 22 24 33 39 46 43 43 49 46 49 55 58 61 59 58 56 57 59 54 55 54 55 60 63 67 70 70 70 69 69 70 67 67 68 69 70 70 69 70
13 17 13 16 20 24 28 30 31 29 32 43 42 41 48 55 54 58 60 59 59 57 57 55 56 56 57 59 62 66 70 71 70 70 69 69 67 59 69 66 70 69 70 69
18 17 17 20 26 29 28 29 30 30 25 32 38 37 48 51 56 54 57 58 59 59 57 57 57 56 57 58 60 65 69 71 71 71 70 69 69 67 68 68 68 69 69 70
18 18 18 23 26 28 25 29 28 25 23 20 36 36 48 55 55 59 58 60 61 62 58 57 57 57 57 58 59 65 68 71 72 71 71 70 68 68 69 68 68 68 68 69
17 21 20 27 28 27 27 29 26 22 20 18 35 42 48 54 57 59 58 59 61 63 64 62 58 59 59 59 59 64 69 71 71 71 72 72 71 70 70 69 69 66 67 67
18 20 26 28 29 32 27 27 26 21 19 16 41 49 52 52 54 55 56 57 59 61 62 65 63 60 59 62 62 65 69 71 71 71 72 73 73 72 67 68 69 68 68 68
24 23 25 24 26 27 27 26 23 23 18 16 40 43 46 50 51 53 54 55 57 59 61 63 65 65 68 68 69 69 70 71 72 72 72 72 73 73 72 73 68 70 71 72
22 26 21 21 20 22 24 23 24 22 19 17 36 42 48 49 51 52 53 54 55 57 59 61 63 64 67 66 64 67 69 71 71 71 72 72 72 73 73 72 70 69 70 70
22 21 22 19 19 18 19 21 22 21 22 21 37 45 50 50 51 52 52 53 54 56 58 60 61 62 63 66 66 66 65 67 69 71 70 71 72 72 72 72 71 71 71 70
25 18 19 18 19 20 21 21 21 20 21 22 30 43 50 50 51 52 52 52 51 54 55 57 59 60 61 62 63 65 64 65 69 70 69 70 71 70 72 73 72 72 72 72
26 16 18 23 22 18 17 20 20 20 20 19 41 47 48 49 50 51 52 52 51 51 53 54 56 58 59 60 60 61 63 64 67 69 70 70 70 70 71 71 72 72 72 72
19 16 16 19 22 16 17 15 18 19 21 27 44 46 48 49 50 50 51 51 50 50 50 52 53 55 57 59 58 59 60 62 64 66 66 67 69 71 69 70 70 71 72 72
23 20 18 19 17 16 15 16 15 14 14 40 43 45 50 50 51 51 50 49 48 47 47 47 48 52 54 56 58 58 59 60 60 61 61 64 66 67 67 70 70 70 71 72
23 23 19 17 17 14 13 14 14 14 15 25 41 45 48 48 49 49 48 47 47 46 45 45 45 46 47 49 53 57 58 59 58 59 59 61 64 65 65 67 67 70 70 70
24 25 23 19 19 13 14 19 15 12 15 27 40 46 47 47 48 48 47 45 44 44 43 43 42 42 44 44 46 50 54 59 60 59 59 59 59 60 63 64 64 66 68 71
17 22 17 17 14 14 16 23 18 12 11 37 44 45 46 46 45 44 44 44 44 43 43 41 41 41 44 43 45 48 48 51 56 57 58 59 59 59 59 61 62 63 65 67
18 20 23 17 12 10 23 22 21 19 17 28 43 44 44 44 42 43 43 42 39 39 39 39 38 39 41 42 43 46 47 49 51 52 53 54 58 60 59 58 60 62 62 63
18 19 16 17 19 20 25 26 24 17 26 28 41 43 44 43 42 42 39 38 37 37 36 37 37 39 40 42 44 45 46 48 50 51 52 53 54 56 59 59 60 60 60 61
25 21 21 18 15 16 30 29 25 37 34 32 34 44 42 40 39 37 37 37 36 36 35 35 37 39 40 41 44 45 47 49 50 50 50 52 53 53 53 57 60 61 60 60
24 27 28 28 29 34 31 34 36 36 37 36 37 36 36 35 34 34 35 35 35 35 36 36 37 38 39 42 44 44 47 48 49 49 49 50 51 52 54 55 57 58 59 59
27 27 29 29 32 33 33 34 36 35 35 35 35 33 33 30 31 33 33 34 34 35 36 36 37 38 39 42 44 46 46 47 47 48 49 49 49 49 50 50 50 51 52 54
29 33 29 29 30 30 30 31 33 33 33 33 31 31 30 30 31 32 33 34 34 36 36 38 38 39 40 41 42 43 45 46 46 47 47 47 47 46 46 47 48 49 50 52
33 30 32 31 30 31 30 31 33 33 31 31 30 29 30 30 31 32 32 33 35 37 39 39 40 40 41 41 42 43 44 46 46 46 45 45 45 44 44 44 44 47 48 48

GFSCGP_sfc_30mbdewp_108.txt.gz
Dewpoint
28 22 22 23 23 23 22 30 48 53 56 55 55 55 59 61 59 56 59 60 54 55 56 58 62 63 63 63 65 66 66 69 69 69 67 67 67 68 69 69 70 70 71 68
26 23 23 23 22 21 21 23 45 55 55 55 55 55 58 60 59 58 59 59 52 56 57 58 62 62 62 62 65 66 66 67 68 70 70 69 69 70 69 68 71 70 71 68
25 25 25 24 22 19 17 20 44 49 55 55 54 53 55 58 58 61 61 61 60 55 56 58 61 62 61 63 66 67 67 66 67 69 69 68 69 70 69 69 69 70 70 70
23 25 24 22 22 17 13 17 42 50 47 41 51 43 52 55 56 59 61 61 60 54 54 57 60 61 61 65 67 68 67 68 69 69 67 65 66 66 68 69 69 70 70 70
19 18 17 18 19 16 14 43 50 48 46 46 48 45 47 54 54 56 59 60 60 59 53 55 60 61 62 65 67 67 67 68 70 70 68 66 66 67 68 69 69 70 70 70
24 25 19 16 16 16 43 48 48 49 47 42 46 47 49 51 52 55 58 60 61 59 61 56 60 61 62 64 68 67 67 67 69 69 69 66 64 65 67 68 68 69 70 70
26 27 25 16 15 19 31 43 37 37 38 35 45 46 47 52 54 55 57 59 60 59 60 62 59 60 62 64 67 68 67 67 69 69 69 67 63 64 67 67 68 68 68 69
23 22 20 17 18 17 25 27 30 30 34 35 40 41 48 54 56 57 58 61 61 63 63 64 63 60 62 63 65 68 68 68 69 69 69 67 65 67 68 68 68 68 69 68
22 24 26 24 23 22 22 28 29 32 29 32 46 52 55 56 56 59 59 62 62 63 65 65 65 65 63 63 65 67 69 69 69 70 69 69 68 67 66 67 69 70 69 68
28 23 25 28 27 30 29 28 25 26 24 24 43 47 48 53 56 57 57 58 61 62 64 65 66 67 67 67 67 67 69 69 67 68 70 71 69 68 65 64 67 69 68 69
27 25 24 28 25 26 27 27 25 25 25 23 36 43 54 54 54 54 55 58 60 62 62 63 65 67 67 67 67 66 65 64 62 64 67 68 70 71 71 71 71 70 68 69
26 27 26 26 28 26 26 25 26 22 22 38 42 46 54 53 54 54 55 56 60 61 62 62 63 65 65 65 66 66 64 63 63 66 67 67 69 71 71 71 70 70 69 68
21 23 25 25 24 25 19 22 23 23 25 38 37 45 54 53 52 53 54 57 58 59 60 61 61 62 64 64 65 64 65 65 66 67 68 68 69 70 71 70 71 70 69 69
28 25 27 25 24 25 26 17 19 21 26 40 44 48 52 52 51 52 54 56 58 58 58 57 58 60 62 64 64 64 64 65 67 66 67 67 67 68 69 71 71 71 70 69
26 23 25 26 25 22 23 16 17 20 34 26 47 47 50 51 51 52 53 54 55 57 57 56 56 57 59 60 62 63 63 64 64 65 66 66 66 67 68 68 68 71 71 71
25 25 27 25 25 24 18 18 29 41 45 47 48 48 51 52 52 51 51 52 52 54 55 57 57 56 56 57 58 60 60 60 62 64 64 65 65 65 66 66 67 67 68 71
28 26 26 23 25 22 16 20 16 32 47 48 45 49 51 51 50 50 49 47 48 51 49 49 50 50 52 57 58 58 59 59 60 59 59 61 62 61 63 65 65 65 66 68
26 27 27 25 24 15 21 23 24 36 47 48 49 50 51 51 50 49 48 46 46 45 46 46 46 46 47 51 55 59 58 56 54 54 55 57 60 60 60 61 61 62 65 66
22 25 23 21 26 22 22 22 27 39 47 50 50 51 51 50 48 47 45 43 41 42 44 44 44 45 46 49 52 52 52 52 51 51 52 53 54 54 57 59 60 61 61 62
21 25 20 24 21 18 25 27 31 39 42 50 51 50 49 47 44 44 42 40 39 43 43 43 43 44 46 49 49 48 48 48 49 50 51 51 52 52 52 53 57 60 60 60
20 21 18 21 20 27 31 37 36 23 31 50 51 50 48 46 45 43 40 39 39 42 42 43 44 45 46 48 48 48 48 48 49 50 50 50 51 51 51 51 53 54 55 59
29 20 21 22 19 23 37 35 33 40 47 48 49 46 46 43 40 39 38 37 39 41 41 42 44 45 47 48 47 46 46 47 48 48 48 48 48 49 50 50 49 49 50 52
24 31 31 32 33 38 39 41 44 46 46 46 44 44 42 40 39 38 37 37 39 40 40 43 43 44 45 45 45 45 46 47 47 47 47 47 48 48 48 48 48 48 49 49
32 33 33 34 36 37 36 38 40 44 44 44 44 44 43 41 40 39 38 38 38 39 40 42 43 44 43 43 45 45 45 46 45 45 47 48 48 48 48 47 47 47 46 46
37 37 33 33 36 36 35 35 35 37 41 42 43 41 40 40 39 38 37 38 39 40 40 43 43 42 42 43 44 45 44 44 45 45 45 46 46 46 48 47 46 46 46 46
39 35 34 35 40 37 36 36 36 33 34 34 33 33 39 40 40 39 37 39 39 40 43 42 42 41 41 42 43 43 43 44 43 42 42 43 44 46 45 46 45 46 45 45

GFSCGP_sfc_30mbdewp_111.txt.gz
Dewpoint
31 23 23 24 24 23 22 22 40 54 55 56 55 55 57 59 57 57 58 58 58 60 61 63 64 66 66 67 66 67 67 68 68 68 65 65 65 66 69 69 70 70 70 68
28 24 24 24 23 22 21 20 48 54 56 55 55 55 58 60 59 59 58 59 56 59 61 63 64 65 64 65 66 66 67 68 68 69 68 68 67 69 69 69 70 70 70 68
26 25 26 24 23 22 19 18 34 50 54 55 55 53 55 58 59 59 59 60 60 56 59 61 63 63 63 64 66 66 67 67 68 70 69 69 70 70 69 68 69 70 70 68
25 26 25 24 24 22 16 17 22 51 49 44 51 42 53 56 57 57 58 59 60 58 59 61 62 61 62 63 65 66 67 67 68 70 68 67 67 66 67 67 69 70 70 70
21 19 20 22 21 20 18 31 23 50 46 46 48 43 46 55 55 56 56 56 60 60 57 60 61 61 61 64 65 66 67 67 68 69 67 66 66 67 68 69 69 69 70 70
24 25 24 23 20 19 49 48 48 47 46 39 45 43 46 52 54 54 56 58 61 60 59 58 60 61 61 65 66 67 67 68 69 69 67 66 66 66 67 68 68 69 69 70
25 26 27 24 21 23 45 42 39 37 38 36 46 45 46 53 55 57 56 59 61 62 60 62 59 60 61 65 66 66 67 67 69 69 69 66 65 66 67 67 68 68 68 69
22 20 22 20 20 16 44 37 33 30 34 36 48 42 49 55 57 58 59 59 62 62 62 62 62 61 61 64 67 66 66 66 68 68 69 67 66 65 67 68 68 68 68 69
22 23 27 23 22 22 27 34 31 31 32 34 44 51 55 57 57 58 60 60 61 63 63 62 64 65 62 63 66 67 67 67 68 69 69 68 64 65 66 68 68 69 69 69
26 23 25 28 28 29 24 29 26 27 26 27 41 45 48 52 54 56 58 59 59 62 65 64 64 66 65 64 66 69 68 68 68 70 69 70 68 68 66 67 67 69 69 69
26 25 25 28 26 26 27 26 26 25 26 27 32 42 53 54 55 55 57 59 61 61 63 64 66 67 67 67 67 68 67 67 67 67 68 68 70 70 68 65 65 67 69 69
25 27 25 26 28 28 26 26 26 24 25 41 40 44 55 55 55 56 57 60 61 62 62 63 64 66 66 66 66 65 64 64 65 66 67 67 68 69 71 71 70 70 70 69
21 23 24 25 26 25 24 22 23 24 30 37 32 43 54 54 54 55 56 59 60 60 60 61 63 64 65 65 65 65 66 66 67 67 67 67 67 69 69 70 71 70 69 69
28 26 28 23 21 24 22 23 20 22 28 39 41 48 51 52 52 54 57 58 58 58 59 59 61 62 64 64 64 64 66 67 64 65 66 66 67 68 69 70 71 71 70 69
26 23 26 31 28 24 23 19 27 19 30 30 44 48 51 52 52 54 56 57 57 56 56 58 58 59 61 63 63 64 65 65 66 65 66 66 66 67 67 68 68 69 70 71
25 25 27 27 30 24 19 21 25 42 46 47 48 47 52 52 53 54 55 56 56 56 56 56 56 57 58 60 61 62 62 63 64 64 63 64 64 65 66 66 66 66 67 68
28 26 25 23 28 22 21 21 22 41 47 48 45 48 51 51 52 52 53 54 54 53 53 49 50 52 57 58 59 59 59 59 58 58 59 60 60 61 63 64 64 65 66 67
26 27 27 25 26 22 24 24 33 46 48 48 49 51 51 51 51 51 51 52 50 49 46 47 49 51 54 57 55 54 53 52 52 52 52 53 55 58 60 61 60 60 62 62
26 25 24 22 25 25 27 25 26 35 45 50 50 51 51 50 50 47 47 47 47 45 45 45 47 50 52 51 50 49 49 49 50 50 50 51 52 52 52 56 60 61 61 61
24 24 20 24 20 20 28 27 35 39 30 50 51 51 49 48 45 45 43 44 45 44 44 45 48 49 48 48 48 48 48 48 48 49 49 49 51 51 51 51 53 55 57 59
19 22 16 21 20 27 31 35 37 27 28 51 52 51 48 46 45 42 42 43 43 43 43 45 46 47 47 48 46 46 46 46 47 48 47 48 48 48 49 49 50 50 51 52
23 18 19 22 19 22 37 36 27 37 46 51 52 51 48 45 42 39 41 42 42 42 44 45 45 47 47 46 45 45 45 46 47 47 47 48 48 48 48 47 48 48 48 48
27 31 30 30 30 37 38 43 45 47 47 49 49 48 46 44 41 39 40 41 41 42 44 45 46 45 45 45 44 43 45 45 45 46 47 48 47 48 48 46 46 46 46 46
34 34 35 35 36 37 37 40 44 45 46 48 48 46 46 44 42 42 41 41 41 42 43 44 43 42 43 44 44 45 45 45 44 44 44 45 45 46 47 47 46 46 45 44
36 37 33 34 36 35 35 37 42 44 44 45 46 46 45 45 43 41 41 41 41 42 43 43 42 42 43 44 43 43 43 44 42 42 42 42 44 44 44 44 45 44 45 45
38 35 31 32 38 35 37 39 38 42 42 43 42 42 42 41 40 39 39 40 41 42 43 42 42 41 43 43 42 43 43 42 41 40 41 42 42 42 42 42 42 44 44 44

GFSCGP_sfc_30mbdewp_114.txt.gz
Dewpoint
31 29 30 24 24 24 22 22 30 55 56 55 55 55 56 58 57 57 57 58 58 59 62 64 65 67 67 67 67 66 65 64 66 66 64 64 65 65 68 69 70 70 70 69
25 25 24 25 24 23 22 20 46 55 57 55 55 55 58 58 57 57 58 59 57 59 62 63 64 66 67 66 66 66 65 66 68 67 66 66 66 67 68 69 70 70 70 69
27 26 25 24 23 21 20 19 42 50 55 56 54 52 55 58 59 58 60 61 61 60 61 63 63 65 66 66 66 66 67 67 68 68 69 69 69 69 68 68 69 70 70 69
25 27 26 24 24 23 19 19 30 51 48 43 53 42 51 57 58 58 58 60 61 62 60 62 63 64 64 65 66 67 67 67 68 69 68 67 66 66 67 67 69 69 70 70
23 20 23 23 23 23 20 37 28 51 47 46 46 41 44 56 55 57 57 59 61 60 59 61 62 63 63 64 65 66 67 67 68 69 68 67 66 67 68 68 68 69 70 70
24 25 23 23 23 22 49 47 47 46 45 39 41 41 44 52 54 56 57 57 60 61 60 60 62 63 62 63 65 66 66 67 68 69 68 67 66 66 67 68 68 69 69 70
25 25 27 24 22 32 46 43 38 38 40 37 44 44 44 53 55 57 56 57 59 62 61 60 60 61 61 63 65 66 66 66 68 68 67 67 66 67 67 67 68 68 68 69
23 20 25 21 24 21 41 36 35 32 34 35 47 42 46 56 57 57 57 56 58 63 62 61 62 61 61 63 66 66 66 66 68 69 69 67 66 66 67 68 69 68 68 69
22 22 27 25 20 27 37 36 35 33 34 38 43 49 54 56 58 58 57 57 60 61 62 61 62 65 62 63 66 66 66 66 68 69 69 68 66 65 66 68 69 69 69 69
26 21 25 27 28 29 31 33 29 29 27 27 42 45 45 53 55 58 59 59 60 62 63 63 63 65 65 64 65 67 67 66 68 69 69 68 67 66 67 68 68 69 69 69
27 25 24 27 26 26 27 27 26 27 28 28 32 39 53 53 54 55 57 59 61 62 62 63 63 65 66 67 66 68 68 67 68 69 69 69 69 69 68 66 67 68 69 69
26 26 24 25 28 28 26 26 26 24 27 37 35 40 53 55 55 56 57 59 61 61 62 64 65 66 66 66 66 66 66 66 67 67 67 67 68 69 70 69 68 68 68 69
24 25 22 24 26 25 23 24 23 25 38 37 28 37 55 56 56 57 58 58 60 60 62 63 64 65 65 65 65 65 66 66 66 66 66 66 67 67 68 70 70 71 70 69
29 28 25 23 23 23 21 22 21 23 24 36 34 46 51 53 54 56 58 59 59 59 60 61 63 64 65 64 65 65 66 66 66 66 66 66 66 67 68 70 70 71 71 69
25 25 27 27 27 25 22 22 28 21 26 26 36 41 50 52 53 56 58 58 57 57 58 59 60 62 63 63 64 65 65 64 65 65 65 65 66 67 67 67 68 69 70 71
26 25 27 27 30 26 21 23 31 44 45 44 46 46 52 53 54 56 57 56 56 56 56 57 59 60 62 63 63 63 61 60 64 63 62 62 63 65 65 66 66 67 68 68
26 26 25 24 28 24 22 23 31 37 47 48 42 46 52 52 54 55 56 56 56 55 51 53 57 59 59 60 61 60 60 60 59 58 58 59 61 62 62 63 64 65 65 65
26 27 27 25 27 24 26 26 43 48 49 49 48 51 52 52 53 55 55 54 53 50 52 54 56 57 56 56 56 55 55 54 52 52 52 53 54 56 60 61 61 61 61 61
27 26 24 21 25 25 25 26 27 33 40 50 50 51 51 52 51 50 53 51 48 48 48 52 54 53 52 52 52 53 53 51 50 49 50 51 52 51 52 53 55 58 61 61
22 24 21 24 18 13 25 31 37 41 23 51 51 51 51 51 48 47 48 48 46 46 49 50 50 49 50 50 49 48 47 48 48 48 48 48 50 49 49 50 50 52 55 57
18 20 15 23 20 25 31 37 37 23 24 51 52 51 50 49 48 45 48 46 45 46 48 48 48 48 47 46 46 45 46 46 47 48 48 48 49 48 48 49 49 49 49 50
20 18 18 21 19 20 38 36 28 34 45 52 52 52 50 46 44 46 45 44 44 45 46 47 46 45 45 45 44 44 44 46 47 48 48 47 48 48 47 47 47 47 47 47
27 28 27 22 22 35 38 42 46 47 47 50 51 49 47 44 44 45 43 42 44 44 46 47 45 44 44 44 44 43 44 45 46 45 45 46 47 47 47 46 46 45 45 45
34 35 35 35 36 37 37 42 45 46 47 49 50 48 47 45 45 44 43 42 43 44 45 44 43 43 43 44 44 44 45 44 43 43 44 45 44 43 44 45 45 44 44 44
35 37 34 34 36 35 35 38 42 46 49 49 49 48 47 45 44 44 43 43 43 44 44 43 42 43 43 43 42 43 43 42 41 42 42 42 42 42 42 43 44 43 43 44
37 34 32 32 36 34 35 39 40 45 46 47 47 46 46 45 43 47 48 45 43 43 43 42 42 43 43 42 42 42 42 41 40 40 41 41 41 41 41 40 39 41 41 43

GFSCGP_sfc_30mbdewp_117.txt.gz
Dewpoint
32 37 38 33 26 26 29 25 37 53 56 55 54 54 57 60 60 59 59 58 59 59 61 63 64 65 66 68 68 69 69 67 65 67 66 67 67 68 69 71 71 71 71 71
33 37 34 27 25 24 23 23 51 55 57 55 54 54 56 58 58 59 60 58 59 59 61 63 64 65 66 67 68 68 68 68 67 66 67 67 68 68 69 71 71 71 71 71
35 34 25 26 24 23 23 23 48 48 55 55 53 53 56 57 58 59 60 60 60 59 59 62 63 65 66 67 67 68 68 67 67 68 68 69 69 70 68 69 70 70 71 70
34 27 24 24 23 23 23 22 38 52 47 41 53 43 54 56 56 57 59 60 59 61 61 61 62 64 65 66 67 67 68 67 69 70 67 68 65 65 67 68 69 70 71 71
27 25 26 25 24 25 24 27 30 43 47 44 49 42 47 55 56 57 58 59 61 61 60 61 62 63 64 66 66 67 68 69 69 70 69 68 67 67 67 69 70 70 72 72
24 25 24 24 24 25 46 40 44 47 45 33 39 40 44 53 54 56 57 58 60 61 60 60 62 63 64 65 66 66 68 69 69 70 71 70 67 67 68 69 68 70 70 70
25 25 26 25 23 31 47 38 38 37 38 31 43 43 40 51 54 56 57 57 59 61 60 60 61 63 63 64 65 65 68 68 69 70 70 70 70 70 69 69 68 70 68 70
19 14 23 25 25 24 38 33 25 25 31 30 47 40 42 54 56 57 58 58 60 60 61 61 60 61 63 63 65 66 67 68 69 69 70 70 70 69 70 70 68 68 68 70
24 23 27 26 22 28 35 33 32 33 37 34 41 46 52 55 56 56 58 58 59 61 61 62 61 61 62 64 64 65 67 68 69 68 70 71 70 69 69 71 71 69 70 71
26 22 26 27 28 29 33 32 24 31 30 27 41 43 41 52 54 56 56 57 57 60 62 63 63 63 64 64 65 66 68 68 68 69 70 71 70 69 69 69 71 71 71 71
28 27 25 28 28 27 27 28 29 29 29 24 30 38 53 53 54 57 56 56 58 59 61 63 63 64 66 66 66 67 68 68 68 69 70 71 70 69 70 69 70 71 72 72
27 27 23 26 29 28 27 27 29 25 28 34 33 33 53 55 55 57 58 59 59 59 61 62 64 65 65 66 67 68 69 69 69 67 70 70 70 70 71 70 69 70 70 71
27 25 19 22 24 26 24 24 24 28 37 34 25 31 55 55 55 56 57 59 61 61 62 64 64 65 66 66 66 67 68 68 69 69 69 69 69 69 70 71 72 71 71 72
31 28 26 15 24 24 23 23 24 23 27 31 30 42 52 54 55 56 58 59 60 60 60 61 63 64 65 66 66 66 67 67 67 67 67 67 67 68 69 70 72 72 72 72
28 28 29 26 25 24 24 26 37 26 26 28 34 41 47 53 55 56 59 59 59 59 60 61 62 64 64 65 65 65 65 65 66 66 66 66 67 67 68 69 70 72 73 72
28 29 29 28 30 30 23 24 33 38 39 39 41 42 51 55 56 57 58 58 58 58 59 59 60 62 63 64 64 64 64 64 65 64 65 65 66 66 66 67 69 70 71 72
30 29 27 24 29 29 24 25 28 41 46 46 40 47 53 54 55 56 56 57 57 57 57 58 60 61 62 62 63 61 61 60 60 60 61 62 64 64 65 65 66 67 67 69
30 31 30 22 28 23 27 34 38 40 47 48 48 49 53 54 55 57 57 57 54 54 57 57 56 56 56 57 57 57 56 56 56 56 57 58 60 61 62 63 63 64 65 66
31 30 26 23 19 25 27 30 31 29 28 44 49 52 53 55 55 56 56 54 54 55 56 55 55 54 55 55 55 55 54 52 52 53 54 55 56 56 55 56 59 62 63 63
26 31 24 26 19 15 27 32 37 40 26 48 51 52 53 53 50 49 50 50 51 54 54 53 53 53 53 52 52 52 52 51 50 51 51 52 52 53 53 53 54 57 59 61
23 24 19 24 20 22 32 38 38 27 29 48 52 53 53 52 51 51 50 50 51 53 52 51 51 49 49 48 48 47 47 47 48 50 50 50 50 51 52 52 52 53 54 55
23 22 22 23 20 16 39 38 30 41 45 50 53 53 53 50 52 51 49 47 49 49 49 48 47 46 46 46 46 45 46 48 49 49 49 49 49 48 49 50 50 51 51 52
29 28 27 25 25 39 41 43 47 48 48 52 54 53 50 50 51 50 48 47 48 48 47 46 45 45 45 46 45 44 47 48 47 48 48 48 48 48 48 49 48 47 48 48
35 37 38 37 39 39 40 43 47 49 49 51 53 50 50 49 49 48 47 46 47 47 46 45 44 43 44 45 45 46 46 47 46 46 46 45 45 46 46 44 44 45 45 45
37 37 37 37 38 38 39 42 43 49 51 51 51 49 49 49 48 47 47 47 47 46 45 45 44 43 43 44 44 44 45 45 44 44 44 43 43 42 42 42 42 43 44 44
40 38 38 36 40 39 40 42 43 47 49 50 50 49 48 48 47 47 48 50 47 46 45 44 45 44 43 43 43 44 43 43 42 42 41 40 39 39 39 38 39 41 42 41

GFSCGP_sfc_30mbdewp_123.txt.gz
Dewpoint
15 20 33 36 37 40 38 42 48 51 53 52 53 56 55 57 58 57 58 54 54 52 55 55 57 58 60 61 64 66 67 66 68 65 62 63 61 63 61 61 66 67 66 67
14 18 25 34 35 33 37 41 45 55 50 52 52 54 54 58 58 58 59 59 59 56 57 56 57 58 59 62 65 65 66 68 67 67 66 67 65 66 66 65 63 65 65 67
14 17 23 33 36 30 31 33 42 45 49 49 51 54 56 55 57 54 58 55 57 60 56 55 58 58 58 59 63 67 68 68 67 66 67 67 68 67 65 67 65 65 65 65
15 17 29 33 32 30 30 31 46 50 45 43 48 47 55 57 56 54 53 57 60 61 62 59 56 59 56 59 61 64 66 69 68 68 66 67 64 62 63 64 67 67 65 65
15 19 26 30 29 31 32 32 31 40 42 41 43 46 50 56 56 55 53 53 57 58 59 56 54 57 58 60 60 62 66 69 68 69 69 66 66 66 64 67 67 69 67 66
22 26 26 25 27 28 31 29 28 31 32 30 38 34 48 52 53 56 55 53 55 52 56 56 59 56 64 60 59 60 65 68 68 70 69 68 67 66 65 64 67 65 65 66
25 25 24 23 24 26 28 27 26 28 29 27 28 30 44 52 49 55 55 55 54 52 55 57 57 60 60 63 58 60 65 67 68 69 69 68 69 68 66 68 65 65 64 63
20 19 22 22 21 20 23 26 25 25 24 24 31 30 43 46 48 51 56 56 55 52 54 54 56 63 64 63 59 59 65 67 67 67 68 70 68 67 68 67 68 62 61 65
15 17 19 17 18 18 19 22 25 23 29 24 31 35 45 44 48 50 52 56 57 56 55 53 58 59 60 58 62 62 65 67 67 66 68 69 69 68 67 69 69 65 65 65
18 15 17 17 16 15 16 21 20 22 22 21 34 39 39 43 45 49 50 54 56 59 57 56 57 59 62 59 62 62 64 67 66 65 66 67 67 68 68 68 69 67 66 64
21 18 19 15 16 14 15 17 22 18 19 19 25 34 44 44 45 48 50 52 56 59 59 56 57 56 62 62 63 62 64 66 66 65 64 65 65 66 69 68 68 69 69 67
22 20 23 19 19 15 20 13 19 18 17 17 15 35 39 45 46 48 50 53 56 59 60 58 57 59 63 67 64 64 64 65 66 66 66 65 65 66 67 68 68 69 70 70
25 21 19 24 23 22 22 20 14 12 15 15 18 30 47 47 47 50 51 53 57 60 60 59 61 62 62 64 65 65 65 66 65 66 66 66 66 65 66 67 68 68 69 70
27 21 22 27 28 26 19 16 19 19 16 16 16 40 44 45 49 53 53 56 58 60 62 61 63 63 64 65 66 66 67 68 68 67 66 67 67 66 65 67 68 68 70 69
25 22 23 24 24 22 24 20 19 17 16 15 15 25 35 41 49 54 58 59 59 59 61 62 63 64 64 65 66 66 66 67 68 68 67 68 69 69 67 68 69 68 69 69
23 19 21 22 21 20 18 20 21 20 20 18 18 26 44 57 54 57 59 60 60 61 61 62 63 64 64 65 66 66 67 68 70 69 69 69 69 69 69 69 70 70 69 69
22 18 20 18 17 19 18 18 18 20 25 25 25 43 46 46 54 57 59 59 60 60 60 61 63 63 64 66 65 64 65 67 68 67 68 68 68 68 68 69 69 70 71 71
24 25 23 19 28 21 19 26 24 26 33 40 34 38 46 51 54 58 59 58 58 59 61 61 63 64 65 64 63 63 63 64 63 62 63 65 66 67 68 68 68 69 70 71
24 26 23 19 19 31 29 29 28 25 27 32 33 39 50 56 57 56 57 58 58 59 60 59 60 60 62 63 62 62 62 62 60 59 59 61 62 63 63 65 66 67 68 69
19 24 25 22 19 18 35 33 32 31 27 37 40 40 49 53 49 54 59 58 58 58 57 56 56 55 56 58 61 60 60 60 59 57 57 59 60 59 59 61 62 64 65 66
19 20 19 16 18 26 33 29 26 21 35 39 43 43 51 52 55 57 58 58 57 57 56 55 54 53 53 54 55 57 57 56 56 56 56 57 57 59 60 60 60 61 64 63
20 19 18 17 22 27 35 28 25 41 41 41 41 45 52 56 56 57 57 57 56 55 54 53 52 51 52 53 52 52 53 53 53 53 53 53 55 56 58 59 60 61 61 63
23 21 27 28 32 35 33 38 41 42 42 44 45 48 53 53 55 55 54 54 53 52 51 50 50 49 50 51 52 51 52 53 51 52 51 51 52 53 54 54 54 56 58 60
29 30 25 25 29 30 35 39 41 42 43 46 48 51 52 54 54 54 54 53 52 50 49 48 47 47 48 49 51 51 51 53 52 51 51 50 50 48 47 47 47 48 48 49
28 43 26 25 37 44 34 37 40 43 45 48 50 50 52 53 55 55 53 52 49 48 47 47 45 46 47 47 48 50 50 50 49 47 47 46 45 46 46 45 44 44 41 43
26 29 26 26 46 36 38 39 40 40 43 47 49 49 50 53 53 53 53 51 49 48 48 48 47 45 45 46 46 46 48 48 47 45 42 40 40 39 41 42 39 39 39 36

GFSCGP_sfc_30mbdewp_129.txt.gz
Dewpoint
25 23 23 26 28 38 42 44 48 54 56 55 54 52 50 50 54 54 56 50 53 54 55 58 60 61 62 66 65 67 68 66 65 67 62 64 65 69 67 66 68 68 59 59
19 19 20 23 25 36 41 44 51 54 55 55 54 52 49 51 53 56 56 58 57 58 57 60 60 61 64 65 66 68 66 68 67 69 68 68 66 68 68 69 68 68 69 70
14 15 15 16 23 37 38 40 49 49 53 56 55 52 52 52 58 60 60 59 60 60 61 60 60 61 65 65 67 67 67 68 68 67 69 68 70 67 66 65 68 66 68 67
11 13 12 12 18 34 44 49 50 50 47 44 53 46 52 53 55 58 57 56 57 59 62 61 60 63 64 65 67 67 67 67 67 69 68 64 64 64 65 65 69 67 68 67
10 11 13 11 16 33 43 43 46 47 46 45 48 47 49 55 53 54 57 54 54 57 61 60 61 63 64 66 67 67 67 68 68 69 69 67 66 67 69 67 68 67 70 68
8 11 14 17 18 32 37 46 49 50 50 43 47 47 47 54 54 53 56 54 54 58 60 61 64 65 65 65 68 69 69 69 69 69 69 67 66 67 67 67 66 67 66 68
8 8 15 21 28 29 30 37 34 38 37 35 46 49 46 51 55 54 55 55 53 57 58 60 62 64 64 65 67 69 68 69 69 70 67 69 69 67 66 67 67 67 66 67
9 11 23 24 24 23 26 26 27 33 31 30 34 42 49 48 55 56 54 55 55 55 56 59 62 63 63 65 67 69 69 69 69 70 69 70 70 69 69 68 69 69 68 68
18 13 23 23 23 22 25 23 25 31 32 27 34 48 50 54 53 54 57 57 54 54 55 58 62 61 57 64 67 70 69 70 70 70 70 71 71 69 69 70 70 70 69 69
21 20 23 22 21 21 19 22 17 19 17 25 30 42 42 43 52 50 46 50 56 54 57 60 63 63 62 63 65 67 70 69 70 71 70 70 71 70 71 70 70 70 69 69
20 24 24 21 20 17 16 14 15 19 24 21 29 32 49 51 53 42 45 53 57 56 56 56 62 62 63 64 66 67 68 68 70 71 70 69 70 70 71 70 70 70 71 69
26 20 19 23 22 19 14 13 14 15 16 21 21 40 52 51 54 50 51 56 58 57 56 59 62 62 62 62 64 66 66 66 69 70 70 71 70 71 71 70 70 71 70 71
27 25 24 31 25 25 20 20 17 13 11 10 18 38 50 51 51 54 55 54 56 60 58 58 62 62 62 62 61 62 63 61 65 68 70 70 69 71 70 70 71 71 71 71
26 27 28 28 31 35 32 30 29 23 17 11 43 48 48 51 52 53 56 58 59 59 59 59 64 65 64 64 63 62 63 65 65 64 68 67 67 69 70 70 71 69 71 70
23 22 25 30 30 30 29 29 26 23 20 22 34 43 48 52 53 53 53 59 62 60 60 63 65 65 65 65 64 65 66 60 62 64 68 67 69 68 68 70 70 71 70 71
25 22 22 20 23 28 28 27 26 25 23 43 48 47 53 55 52 50 50 48 56 63 61 64 66 65 63 63 64 63 63 66 68 69 65 61 67 68 68 69 70 70 71 72
29 28 25 21 26 23 23 31 29 31 36 40 42 49 49 45 45 48 50 54 59 61 62 63 64 65 66 67 67 67 67 68 67 67 67 68 69 68 69 69 69 70 70 70
25 23 26 21 23 20 36 39 33 34 38 50 55 55 56 57 58 59 61 61 62 61 60 62 65 66 67 67 68 67 65 64 64 63 64 64 64 65 65 66 68 69 69 69
23 25 25 24 24 27 36 38 36 31 38 49 51 54 57 55 58 59 60 60 60 60 59 59 60 63 64 64 66 64 62 61 61 61 61 62 63 63 63 64 65 68 68 67
26 28 24 22 19 22 35 35 33 33 38 42 46 46 44 48 49 55 59 58 57 56 56 56 56 58 60 62 63 61 60 59 59 60 60 60 61 61 62 63 64 64 63 61
27 26 24 22 23 36 39 37 34 27 38 43 51 54 52 47 52 59 57 56 55 54 54 55 55 54 55 58 60 59 58 58 59 58 59 59 60 61 61 62 64 62 60 59
26 24 23 28 26 29 40 37 38 42 43 44 50 56 58 58 57 56 55 54 54 53 52 53 53 53 54 55 55 54 55 57 56 56 56 56 57 59 60 61 62 62 60 57
26 33 28 32 37 42 46 46 47 45 42 41 42 56 58 56 56 55 54 53 53 53 52 52 52 52 53 53 54 53 54 54 55 54 54 55 55 55 53 54 59 59 61 59
35 36 33 33 43 43 46 45 44 46 46 42 54 57 56 55 55 54 53 53 52 50 49 49 49 50 51 51 51 52 53 54 53 52 53 53 51 45 44 46 43 43 46 56
34 36 34 36 43 42 45 44 42 41 46 47 55 57 56 54 54 53 52 51 50 50 49 48 47 49 50 51 51 52 52 51 51 50 49 50 47 43 40 37 39 38 36 43
35 35 31 33 45 43 43 47 47 45 48 43 56 56 55 54 53 52 51 50 49 48 48 48 48 47 48 48 49 50 52 51 50 49 49 48 46 46 42 38 34 34 33 35

GFSCGP_sfc_30mbdewp_132.txt.gz
Dewpoint
25 23 23 24 26 31 37 49 50 55 57 57 53 52 52 53 53 54 55 53 55 55 57 60 62 64 64 65 65 64 64 65 67 64 64 65 65 67 68 69 68 66 61 62
23 22 23 24 28 29 35 45 50 55 57 56 56 52 52 51 51 56 56 53 55 57 58 60 60 62 64 65 65 66 65 65 66 67 67 67 68 69 68 68 69 65 62 64
19 19 22 21 25 21 45 46 49 48 55 56 54 53 51 52 56 58 59 59 58 58 57 59 61 62 65 65 65 66 66 66 68 68 69 69 68 68 67 68 67 68 70 69
15 16 15 15 17 27 42 49 50 52 49 45 52 44 50 52 52 56 58 58 59 60 59 60 61 63 65 65 66 66 66 67 67 68 67 65 64 64 65 65 67 66 68 64
8 9 12 12 11 33 48 50 50 50 46 46 47 41 45 51 50 51 57 56 59 61 60 60 61 63 64 66 66 66 67 67 67 68 68 65 65 65 67 67 68 66 69 68
16 12 11 12 13 40 48 48 49 49 48 42 45 43 44 49 50 50 55 57 57 60 61 62 63 64 64 66 67 67 67 66 67 68 68 68 65 67 67 66 67 65 67 68
11 9 10 12 38 42 47 44 37 38 39 37 46 45 44 51 51 52 53 57 55 59 60 62 63 63 64 65 67 67 67 67 67 68 68 68 67 67 66 66 66 66 65 66
13 5 15 23 29 38 39 37 33 32 32 34 47 43 45 54 52 56 56 56 55 57 59 61 62 63 64 65 67 67 68 67 68 69 67 69 69 69 67 67 67 66 67 66
18 14 21 22 23 24 24 31 32 33 34 28 42 49 53 54 56 56 55 56 54 55 57 60 61 61 65 65 67 68 68 68 68 69 69 68 69 70 69 69 69 68 69 69
20 21 23 23 23 22 21 24 18 21 20 22 35 43 44 51 52 56 55 55 56 55 56 58 61 62 64 64 67 69 68 68 68 69 70 70 70 70 69 69 70 69 69 71
22 22 20 23 19 19 17 15 15 18 22 19 28 36 50 47 50 49 50 52 56 56 55 57 60 62 62 64 66 70 69 69 69 70 70 70 70 70 70 70 70 70 70 68
27 20 20 21 29 22 18 21 15 13 12 19 22 37 51 53 53 55 56 53 56 59 55 59 60 62 63 64 67 68 69 69 69 71 70 69 69 70 70 70 70 70 70 69
24 27 23 22 29 32 31 31 29 20 15 11 11 37 51 52 53 55 55 57 57 59 59 59 61 62 63 65 66 66 66 66 67 67 69 70 69 69 70 70 70 70 70 70
28 28 26 25 29 33 30 29 28 24 21 29 39 47 48 51 50 52 55 60 61 57 59 60 62 62 63 63 64 65 64 64 64 65 65 67 70 70 70 70 70 70 71 70
23 21 29 30 30 34 28 29 31 32 37 23 46 47 51 52 52 54 56 61 60 59 59 62 62 63 63 62 62 62 64 65 65 64 63 64 68 69 70 70 70 70 70 70
29 21 23 20 25 25 31 35 39 38 46 47 47 48 52 51 52 51 52 55 60 62 63 63 65 64 63 63 62 63 65 65 66 63 63 63 66 68 69 70 70 70 70 70
27 25 21 20 23 24 32 38 41 48 50 45 45 47 48 48 50 54 55 60 60 62 62 63 65 65 64 64 64 64 66 67 66 64 66 66 67 67 67 69 69 69 69 70
23 24 26 21 23 27 35 38 36 42 49 53 54 52 54 56 58 60 61 60 60 60 60 61 63 65 66 66 66 65 65 64 64 62 64 65 66 65 66 67 67 68 69 69
27 26 24 22 22 29 35 36 32 37 45 53 53 56 58 58 57 57 58 58 58 59 59 60 61 62 64 64 63 62 62 62 62 62 62 63 64 63 64 64 66 67 66 64
27 27 21 22 17 17 34 36 35 40 38 47 51 51 52 51 41 53 56 56 55 56 56 57 58 59 61 62 62 61 60 60 59 60 60 61 62 62 63 63 63 63 61 59
26 26 24 25 25 36 40 40 37 28 37 46 48 46 47 44 51 56 55 54 54 55 55 56 56 56 57 60 59 58 59 58 58 58 59 59 61 61 63 63 61 59 58 57
21 21 23 28 26 29 42 41 37 41 45 51 53 56 55 56 56 55 54 53 53 53 54 55 55 55 55 56 56 56 56 56 56 56 56 57 58 59 61 62 60 59 57 56
23 27 25 30 33 43 47 44 46 47 44 47 55 58 57 56 55 54 53 53 52 53 53 53 53 54 54 55 55 54 54 55 55 54 54 52 48 48 49 54 56 59 59 57
32 37 31 35 42 42 45 45 43 43 45 47 58 57 56 55 54 53 53 52 50 50 50 51 51 51 51 52 53 54 54 54 54 53 50 46 44 43 43 43 44 49 54 57
32 35 31 40 43 44 42 43 41 38 49 55 57 57 55 55 53 52 52 51 49 49 48 49 50 49 49 50 51 52 52 52 51 51 49 45 42 39 36 36 38 41 40 45
34 30 30 28 38 37 37 39 43 41 46 51 56 55 55 54 53 52 51 50 49 48 48 47 48 48 49 49 50 51 52 51 50 49 48 46 43 40 36 34 31 34 35 34

GFSCGP_sfc_30mbdewp_135.txt.gz
Dewpoint
25 24 23 24 27 42 51 49 49 54 57 57 56 53 55 53 55 55 53 54 55 57 60 63 63 64 65 65 65 64 63 65 67 64 66 65 66 66 65 67 69 67 63 63
23 23 24 25 30 29 32 33 47 54 55 54 54 55 55 53 54 56 55 54 55 57 59 62 63 64 64 64 64 63 63 65 66 64 66 66 67 68 66 68 69 64 59 65
21 23 21 24 26 31 33 40 49 48 55 56 54 52 53 55 56 58 57 56 56 57 58 60 62 63 64 64 64 63 65 64 67 66 69 68 68 68 67 68 68 68 67 67
18 18 17 18 20 26 28 47 49 51 49 47 52 46 52 54 54 54 55 57 57 58 59 60 61 63 63 64 65 65 66 65 67 68 66 66 65 64 65 66 67 67 69 67
12 10 12 14 16 31 43 51 52 49 46 46 46 42 46 51 50 52 56 57 59 58 59 60 61 63 64 65 65 66 66 66 67 68 66 65 65 64 65 66 67 65 68 68
16 17 15 13 25 33 50 48 47 48 46 39 44 43 42 46 46 50 56 57 59 60 59 60 62 64 65 65 65 66 66 66 67 68 67 65 64 64 66 65 65 66 66 68
15 11 11 19 43 48 47 44 37 37 39 37 46 43 42 47 48 49 52 58 58 61 61 61 62 64 64 66 66 66 66 65 66 67 68 68 66 65 66 66 66 66 65 67
14 6 9 26 44 43 41 37 35 34 33 35 46 41 44 52 55 53 52 58 58 60 62 61 62 64 64 66 66 66 66 65 66 68 67 68 68 67 67 67 66 66 66 65
18 17 22 26 37 40 36 34 38 36 34 30 42 47 50 53 55 53 53 57 57 58 61 62 63 64 65 66 67 66 66 66 66 68 68 68 68 68 68 67 68 67 67 68
18 19 24 22 27 33 35 31 31 33 26 24 37 40 34 44 52 56 55 56 56 56 59 61 63 63 65 66 67 67 67 66 67 67 69 68 68 69 69 69 69 69 69 69
22 22 20 24 23 20 19 20 18 23 22 19 34 38 50 51 51 55 54 55 56 55 57 59 61 63 64 66 67 68 68 67 67 68 69 69 69 70 69 69 69 69 69 69
26 21 20 23 29 29 28 24 16 13 14 22 22 34 52 53 53 53 53 53 56 58 56 57 60 62 64 65 67 68 68 68 68 68 69 69 70 70 70 70 69 70 69 69
24 27 21 24 27 29 31 31 28 17 16 14 11 27 51 53 54 56 55 56 58 59 58 57 59 62 62 64 66 68 69 68 69 69 69 69 69 69 69 69 70 70 70 69
31 29 26 25 30 33 28 31 28 23 21 26 26 43 48 52 51 55 56 59 60 59 58 58 60 62 63 63 65 67 68 68 68 68 69 70 70 70 69 70 70 70 70 69
23 23 29 29 32 35 39 41 45 37 38 25 41 44 51 50 52 52 54 59 61 60 60 60 61 62 63 64 65 66 66 67 67 66 66 65 67 69 70 70 70 70 70 70
28 21 23 22 36 38 40 44 45 47 46 47 48 48 52 51 54 57 59 60 61 62 63 64 64 64 63 63 64 65 65 65 65 65 65 65 66 67 68 69 69 70 69 69
26 24 20 19 27 33 32 41 44 47 49 47 43 45 47 53 57 58 58 59 60 61 61 63 64 64 64 64 64 65 66 66 66 65 66 66 66 66 67 67 68 69 69 69
23 26 25 22 25 27 34 39 47 49 50 47 48 52 55 56 57 57 59 58 58 59 60 61 64 65 65 65 65 65 65 65 64 64 64 65 65 65 66 66 67 67 68 67
28 26 24 22 25 34 35 34 34 38 45 52 50 56 57 57 56 56 57 57 57 57 58 59 62 63 64 63 64 64 63 63 63 63 63 64 64 63 64 65 66 67 67 65
27 25 21 21 17 21 34 38 40 41 39 51 53 56 56 54 40 52 55 55 56 57 57 58 59 61 63 62 63 62 61 61 61 61 61 62 63 64 64 63 63 62 60 59
24 26 23 26 27 34 39 40 41 34 36 47 51 51 47 46 50 55 54 54 55 55 56 56 57 58 60 60 60 59 59 58 59 60 60 61 62 62 63 61 60 58 57 56
20 21 24 27 27 25 43 41 33 38 45 47 49 52 54 55 55 54 53 53 54 54 55 55 56 56 57 58 58 58 57 57 57 58 58 59 59 61 61 59 58 57 56 55
22 23 24 26 26 40 45 44 45 46 46 50 52 57 56 55 55 53 51 53 53 53 53 54 54 54 54 55 56 55 55 56 55 54 51 50 50 52 56 59 58 57 57 55
33 37 34 36 42 42 43 44 45 47 45 48 55 57 56 55 54 52 52 51 52 52 52 52 53 53 52 53 54 54 55 55 53 49 46 45 45 44 44 47 51 56 57 55
31 32 32 35 41 43 42 44 44 44 53 54 58 57 56 54 53 52 51 50 50 49 50 50 51 50 50 52 53 53 53 52 50 47 44 42 40 39 38 38 42 45 43 47
36 30 28 24 34 34 32 39 45 44 54 57 56 55 55 54 53 52 51 50 48 47 47 49 48 48 48 49 50 51 51 51 50 48 45 42 39 38 38 36 32 34 35 34

GFSCGP_sfc_30mbdewp_138.txt.gz
Dewpoint
24 23 25 25 26 44 51 48 50 52 55 54 53 56 54 57 57 54 56 56 58 59 60 62 63 65 65 66 66 66 64 65 66 65 66 65 65 66 65 66 68 67 63 66
23 24 25 26 31 31 42 44 50 53 54 52 54 51 57 58 56 55 53 55 57 58 60 62 63 64 65 65 65 65 64 65 66 65 66 65 66 67 65 66 69 66 60 66
22 23 24 26 27 28 31 33 47 48 53 53 54 52 55 57 56 58 56 56 56 57 60 62 63 63 64 64 65 65 64 65 66 66 68 68 68 68 67 67 68 67 64 65
19 18 18 21 20 28 31 48 49 49 50 46 53 44 52 55 53 55 57 56 56 58 59 62 63 63 63 64 65 64 64 65 67 67 67 66 65 64 66 66 67 67 69 69
16 11 12 15 17 34 47 51 51 50 47 47 49 45 46 53 53 54 55 56 57 58 59 60 62 63 63 64 65 64 65 65 67 67 66 66 65 65 65 66 67 66 68 68
14 16 14 15 19 44 50 47 47 47 45 38 44 44 41 51 51 53 54 56 57 58 59 60 62 63 63 64 65 65 65 65 67 68 66 65 65 64 65 65 66 66 66 68
15 14 15 22 40 47 44 39 37 35 37 36 46 42 41 48 51 53 53 57 59 58 59 60 61 63 64 64 65 65 65 65 66 67 67 65 64 65 64 65 65 65 65 66
14 7 10 38 39 40 42 39 33 32 34 35 46 40 40 48 49 50 53 58 59 60 60 60 62 63 64 64 65 65 65 65 66 66 67 67 66 65 66 66 66 66 66 66
16 17 21 36 44 45 41 38 39 34 34 31 37 44 48 54 54 55 51 57 58 60 60 60 61 63 64 65 66 65 65 65 65 66 67 68 68 67 67 67 67 67 67 67
17 16 24 25 39 31 38 38 34 37 30 25 29 41 38 49 53 53 53 56 57 59 60 60 61 63 64 65 66 66 66 65 65 66 67 67 68 68 68 68 67 68 68 68
20 21 21 25 30 31 34 30 32 35 33 23 33 33 51 52 54 54 55 57 57 57 60 61 61 63 64 65 66 67 66 66 66 66 67 68 68 68 69 69 69 69 69 69
26 21 22 26 29 32 24 21 24 27 23 23 28 24 52 54 54 54 55 56 57 57 59 61 62 63 64 65 66 67 68 67 67 67 67 68 69 69 69 69 69 69 69 69
26 27 23 26 29 31 30 31 23 16 16 16 14 22 52 53 54 56 57 58 57 59 57 59 61 63 64 65 66 67 68 68 68 68 68 68 68 69 69 69 70 70 70 70
31 29 25 26 30 33 32 42 33 22 18 16 17 44 49 50 52 53 55 59 61 60 59 58 60 62 63 65 66 68 68 69 69 68 68 68 68 68 69 69 70 69 70 70
26 26 30 31 36 41 44 44 45 37 32 23 41 47 49 50 54 56 59 61 61 60 60 59 60 62 63 64 65 67 68 68 68 68 68 68 68 69 70 70 70 70 70 70
27 23 25 33 37 37 40 44 47 48 47 48 48 49 52 54 57 56 58 59 60 61 63 63 63 63 63 64 64 65 66 67 67 67 66 65 66 67 67 68 69 69 69 69
25 22 22 27 33 34 30 39 44 46 49 47 43 46 50 54 55 56 57 58 58 59 61 63 63 63 63 63 65 65 65 66 65 65 66 66 66 66 67 67 68 68 68 69
23 27 26 25 28 27 34 38 47 47 47 48 49 54 54 56 56 57 57 57 57 58 60 62 64 64 64 64 65 65 66 66 65 65 65 66 66 66 66 66 67 67 67 66
28 26 23 23 27 33 36 35 35 38 42 51 55 55 54 57 56 56 57 57 57 58 59 59 61 63 63 63 65 64 64 64 64 64 64 65 65 65 65 65 67 67 66 64
27 26 21 20 23 28 32 38 42 42 36 47 53 55 55 55 38 53 56 56 57 57 57 57 60 62 61 62 63 62 62 62 62 63 63 63 64 64 63 63 62 61 61 59
23 25 22 25 24 30 37 40 41 34 32 47 53 56 51 47 49 54 55 55 55 55 56 57 57 57 59 60 60 59 59 59 59 60 61 62 63 62 61 60 60 58 57 56
19 21 23 27 25 19 43 40 33 34 45 46 50 52 53 55 55 54 53 54 54 55 55 56 56 55 56 58 58 58 56 57 58 58 57 57 59 61 60 59 58 57 56 55
20 21 23 25 23 33 44 44 45 45 48 49 51 55 55 54 54 53 53 53 54 54 54 54 55 55 55 56 57 56 56 56 54 52 51 52 53 54 57 58 57 56 56 55
33 35 32 34 36 42 43 44 44 46 45 47 52 56 55 54 53 52 52 53 53 53 53 54 54 54 54 55 55 55 55 54 50 48 48 47 48 49 50 51 55 56 56 55
29 33 34 34 34 42 42 44 43 42 49 52 57 56 55 54 52 52 51 52 52 51 51 52 52 52 52 53 53 54 54 51 48 46 44 43 43 44 45 41 42 45 44 50
35 30 28 25 30 35 31 39 44 43 52 55 56 56 55 54 52 51 50 50 49 49 49 49 50 50 49 50 51 51 52 51 48 45 43 42 41 41 41 41 41 40 39 40

GFSCGP_sfc_30mbdewp_141.txt.gz
Dewpoint
24 30 31 28 28 40 48 47 49 51 55 53 53 53 56 58 58 57 57 57 57 58 60 62 63 64 65 65 66 65 67 68 69 67 66 67 67 68 67 68 68 69 66 71
25 31 28 27 34 40 44 46 49 53 54 52 53 51 54 58 58 57 58 57 57 57 60 61 62 63 64 64 65 66 67 68 69 68 68 67 67 68 67 68 71 69 64 70
23 26 26 27 29 28 31 35 48 48 52 52 53 52 54 58 59 59 58 57 56 57 59 60 62 63 63 64 65 66 68 67 68 68 69 69 70 69 66 67 69 69 65 68
22 21 23 23 24 26 32 47 47 50 48 46 53 45 51 56 56 57 57 56 55 57 58 59 61 62 63 64 66 66 68 67 68 69 68 67 64 63 65 65 68 69 70 70
20 12 16 19 19 26 46 50 48 49 48 48 50 47 50 55 54 55 57 56 55 56 57 58 60 61 62 64 65 66 67 67 68 69 69 67 66 65 67 68 69 70 71 71
17 17 15 16 19 38 49 45 45 46 46 41 44 47 45 50 50 54 55 57 56 56 57 58 61 62 63 64 64 65 67 67 68 69 69 69 68 67 67 67 67 67 68 69
16 15 17 21 40 48 44 33 35 34 38 36 46 46 44 49 52 53 54 56 57 57 56 58 61 63 63 63 64 64 66 66 68 69 68 68 68 68 68 68 66 66 66 66
15 11 15 28 32 36 37 32 31 29 32 33 46 42 42 51 50 53 54 55 58 58 58 58 60 62 63 63 65 65 66 66 67 68 69 69 69 67 67 68 66 66 66 66
16 19 15 26 42 36 38 34 40 36 35 31 34 42 49 53 50 51 53 53 58 57 58 58 60 61 63 64 65 65 66 67 67 67 69 69 69 69 68 69 70 69 70 68
20 18 24 31 37 38 38 38 35 37 31 28 28 39 43 50 52 55 52 53 58 59 59 59 60 61 62 63 64 66 66 67 67 66 67 68 69 70 70 70 70 70 70 70
21 22 25 33 33 32 37 33 35 35 32 27 28 38 51 53 54 55 55 53 56 59 60 59 60 63 64 64 66 65 67 67 67 67 67 68 68 69 70 69 70 70 71 71
25 23 26 29 31 33 32 33 34 27 31 28 29 31 53 54 56 56 56 57 57 58 60 60 61 63 64 64 66 66 67 67 67 67 68 68 69 69 69 70 70 71 71 72
29 27 26 27 32 33 33 30 26 19 24 27 21 33 53 53 53 54 55 58 59 59 59 61 62 63 63 65 66 67 67 67 67 67 68 67 68 68 69 70 70 71 71 71
33 31 29 21 31 36 35 44 31 22 20 20 19 45 49 51 55 57 60 62 61 59 59 61 62 63 64 66 66 67 68 69 69 68 68 68 69 69 69 70 71 71 71 71
33 31 37 40 42 43 44 45 38 25 35 25 35 46 49 54 55 57 59 61 61 61 60 59 61 63 65 66 66 67 69 70 69 68 69 69 69 70 70 71 71 71 71 71
28 29 33 36 36 36 37 42 45 47 47 48 48 48 53 55 57 58 59 60 60 61 62 62 62 62 64 65 66 67 68 69 69 69 69 69 69 69 70 71 71 71 71 71
29 27 28 28 33 33 31 39 43 45 48 48 44 49 54 55 55 57 58 58 59 60 62 63 63 64 64 65 66 66 67 68 68 68 68 67 67 67 68 69 70 70 70 71
31 30 30 27 32 25 35 41 44 45 47 48 49 53 54 55 56 57 58 57 58 59 60 62 63 64 65 65 66 67 67 67 67 67 67 68 67 67 67 66 68 69 69 69
32 30 27 26 28 33 36 36 39 38 45 51 53 54 55 57 56 56 57 57 57 58 59 61 63 62 63 64 65 65 65 66 66 66 66 66 67 65 65 66 67 67 67 66
30 31 26 28 28 25 35 38 42 41 35 52 55 54 54 54 44 55 57 57 56 57 57 58 60 61 61 63 64 63 63 62 62 64 64 65 65 64 64 64 63 62 63 61
26 28 25 26 23 27 37 41 41 33 36 53 55 56 54 49 52 57 56 56 57 57 57 58 58 58 59 61 61 60 59 59 60 61 62 63 63 63 62 61 61 60 59 59
23 24 26 30 26 20 43 41 33 39 47 51 54 54 52 55 55 56 55 55 56 57 57 57 57 57 58 59 58 57 56 58 59 58 59 60 62 61 61 60 59 58 58 57
25 25 25 29 27 37 44 45 46 47 50 51 53 55 55 54 54 54 54 55 56 56 56 57 57 58 57 58 58 56 56 56 55 56 56 56 57 57 59 60 59 58 58 57
35 36 34 35 37 41 44 46 46 48 47 50 56 55 55 54 54 54 54 55 55 55 55 56 56 57 56 56 56 56 55 52 52 52 51 51 53 53 53 53 57 57 56 56
33 38 38 37 37 40 44 46 46 45 47 51 57 56 55 55 54 53 53 53 53 53 53 54 55 54 54 54 55 55 53 51 49 48 48 46 47 49 47 44 44 48 47 50
34 36 29 25 37 37 37 45 46 44 48 54 56 56 55 54 53 54 54 54 54 53 53 53 52 52 52 52 52 53 53 52 49 47 45 44 44 44 45 45 45 41 41 37

GFSCGP_sfc_30mbdewp_144.txt.gz
Dewpoint
17 33 34 33 32 38 41 41 42 50 53 52 52 54 54 60 60 59 55 52 54 55 57 58 59 60 61 62 63 63 65 68 68 66 64 64 64 66 65 65 64 67 67 70
19 24 34 32 29 34 36 39 44 51 53 52 52 51 54 58 59 59 57 53 54 55 57 58 59 60 61 62 63 64 66 68 68 65 64 64 64 65 64 65 68 66 66 70
9 21 30 30 31 31 33 35 41 45 51 51 50 49 53 57 59 60 59 56 55 55 56 58 59 59 61 62 63 64 66 68 68 66 67 69 67 67 64 65 66 66 66 67
16 24 29 29 28 29 28 39 42 47 46 44 51 43 50 54 57 59 59 58 55 55 56 57 58 59 60 61 63 64 67 68 69 69 65 65 62 60 60 63 64 66 68 68
16 21 23 26 28 27 32 41 42 46 43 44 48 47 49 52 54 55 57 57 56 53 55 55 57 59 59 61 62 64 67 67 66 68 67 64 62 61 63 63 67 66 69 69
18 16 18 18 21 23 42 40 40 40 39 36 41 45 46 50 50 54 55 57 56 53 53 55 56 59 59 61 62 63 66 67 68 68 67 66 63 63 62 64 64 63 64 65
13 16 14 15 17 22 39 34 30 29 34 31 41 43 42 48 50 51 52 56 57 54 53 54 56 58 60 60 62 62 65 67 67 67 66 65 65 65 65 65 62 62 62 62
9 9 13 14 21 31 35 29 24 24 26 31 41 37 43 50 49 50 54 57 56 56 55 54 56 60 63 61 62 62 65 66 66 66 67 68 67 63 63 66 62 62 61 62
12 12 12 12 22 28 30 31 31 30 28 27 32 38 49 50 50 51 52 56 56 55 56 55 56 58 62 61 63 63 64 66 66 65 67 68 67 65 63 64 67 64 65 64
20 19 17 12 26 30 33 31 29 29 28 25 29 32 44 51 53 54 51 53 55 58 58 55 57 58 59 61 63 64 65 67 66 65 66 66 66 68 68 68 67 66 67 68
20 21 24 26 24 21 27 29 30 35 30 27 28 38 50 53 55 55 54 52 57 58 56 56 58 59 60 62 62 64 65 66 67 67 66 66 67 67 68 67 68 69 69 69
26 21 22 28 31 32 30 28 29 29 31 29 28 37 53 54 55 56 55 52 51 58 59 58 60 59 62 64 65 64 65 65 65 66 67 67 68 68 67 67 68 67 68 69
28 22 22 25 30 34 32 32 30 32 29 30 27 35 45 51 53 57 56 57 57 58 60 60 61 62 64 64 66 67 66 65 65 65 66 67 67 68 68 67 68 68 68 69
32 29 27 33 29 30 33 36 34 29 26 28 25 39 47 51 54 57 59 61 58 58 59 59 61 62 64 64 65 67 68 67 67 66 66 66 67 68 68 68 69 70 70 69
32 34 33 35 36 35 38 35 35 32 26 26 27 36 49 54 56 58 60 61 60 60 59 60 61 62 65 66 67 68 68 70 69 69 68 67 69 70 70 69 69 70 70 70
28 32 35 34 34 35 36 35 40 38 35 37 41 48 55 56 58 58 59 60 61 62 61 60 62 64 65 66 67 67 67 68 71 69 69 70 69 68 68 68 68 69 70 70
29 28 28 27 32 34 34 36 37 43 46 42 42 49 55 55 56 56 57 59 60 61 63 63 63 64 64 65 67 67 67 68 69 69 69 69 69 69 68 69 69 69 68 68
27 29 27 25 29 25 36 37 36 42 46 47 51 53 54 56 57 58 58 58 59 60 62 62 63 64 65 66 67 67 67 68 68 68 69 69 69 68 67 67 67 69 70 70
32 28 26 26 26 28 34 37 37 37 44 48 50 53 55 56 57 57 58 58 59 60 60 61 62 63 64 65 66 66 67 67 67 67 68 68 68 68 68 67 66 67 67 67
29 32 27 23 26 25 35 37 39 37 36 48 50 53 54 56 50 54 57 58 58 60 60 61 62 60 61 64 65 64 64 63 63 64 65 66 66 66 66 65 64 63 64 63
25 23 20 22 18 25 37 37 40 35 39 49 51 52 50 49 55 57 57 58 58 59 59 60 60 60 62 63 63 62 62 60 62 63 64 65 65 65 64 63 64 62 60 60
23 21 18 23 21 20 39 38 37 42 47 52 53 53 51 53 56 57 57 56 58 58 58 59 60 59 60 60 59 58 58 59 60 61 62 62 62 62 62 61 61 61 61 59
23 24 24 27 30 41 42 44 46 47 46 51 52 52 53 52 54 54 54 55 57 57 58 59 59 59 59 60 59 57 57 57 58 57 57 58 59 60 61 60 60 59 58 57
33 33 23 28 32 39 42 44 46 48 49 52 54 53 52 52 53 54 55 55 56 57 57 58 58 58 58 58 58 56 55 56 56 55 54 55 56 56 55 54 59 59 58 58
31 36 29 28 34 40 42 43 44 47 47 50 54 53 52 52 52 53 54 55 55 56 57 57 56 56 57 58 57 55 54 53 53 52 50 49 50 53 52 48 47 54 48 47
34 28 28 19 31 30 30 38 42 44 46 50 53 54 54 52 51 53 54 55 55 55 55 55 55 55 55 55 55 55 55 53 52 51 50 49 49 50 49 50 48 39 37 36

GFSCGP_sfc_30mbdewp_147.txt.gz
Dewpoint
11 30 32 31 31 36 37 41 45 50 53 50 51 52 53 58 59 57 58 53 52 54 54 54 55 56 57 61 59 60 61 64 66 64 61 64 64 64 62 63 65 66 67 68
10 18 27 31 31 32 31 36 48 49 51 51 51 51 54 57 59 57 56 58 57 54 54 54 55 56 58 60 62 62 64 67 68 63 62 65 62 63 62 63 66 66 67 69
9 12 22 33 30 28 29 30 40 43 50 49 48 50 54 56 58 61 59 57 55 55 55 55 55 56 57 59 61 63 65 68 67 68 67 67 64 66 62 65 65 64 65 66
8 13 25 27 27 29 25 28 34 37 45 43 48 42 50 53 55 56 57 56 58 60 58 55 55 56 56 59 61 63 65 67 67 67 67 64 62 59 59 61 66 65 65 66
12 18 20 21 24 26 26 37 33 40 37 39 47 44 47 51 51 54 57 54 58 56 54 62 56 56 56 59 61 62 65 67 66 66 68 66 64 65 60 64 66 68 67 66
15 18 17 17 22 25 25 33 33 33 32 30 40 41 43 46 48 52 56 57 56 58 55 58 62 59 57 58 60 61 64 66 67 66 67 67 65 64 60 61 64 61 64 65
12 15 12 15 15 19 22 29 27 26 26 29 38 38 41 47 48 53 55 56 55 53 53 54 60 59 58 58 60 60 65 66 67 66 66 66 66 67 65 65 61 64 63 61
10 8 11 11 11 14 16 25 26 30 33 32 43 36 44 47 49 52 54 56 57 55 56 58 57 60 60 60 60 62 65 66 66 65 65 66 67 64 63 64 64 62 63 63
11 10 12 11 10 13 24 23 27 32 29 32 35 43 46 49 49 50 50 52 58 56 55 55 57 58 57 60 60 61 64 66 67 65 67 67 67 66 64 67 65 64 63 63
18 18 17 7 10 17 23 35 31 33 30 33 31 41 45 48 52 53 50 55 57 54 55 57 56 57 60 59 60 62 63 66 66 65 66 67 67 66 66 66 68 67 67 66
16 16 25 8 10 17 20 32 33 31 33 34 33 42 48 50 54 55 53 56 57 56 54 56 57 60 61 59 62 61 63 65 66 66 65 66 66 66 67 66 66 67 68 68
18 18 21 25 34 18 20 22 19 20 35 34 36 42 45 46 53 56 54 55 56 59 58 57 58 61 59 61 62 62 63 64 65 65 66 66 67 67 67 67 66 67 68 68
26 18 16 34 33 26 24 29 32 40 40 35 35 38 45 40 53 58 59 55 54 57 59 61 59 60 60 65 63 64 66 65 64 65 65 65 66 67 68 67 67 67 67 68
30 22 33 33 35 36 37 29 42 43 37 37 36 37 38 39 53 56 59 61 59 55 55 58 62 61 64 64 66 68 67 67 68 66 66 66 67 67 67 67 68 68 70 68
27 27 32 35 34 35 41 34 30 38 44 39 38 34 37 44 56 58 61 60 59 58 58 57 63 64 64 65 65 66 67 68 69 69 67 68 68 69 69 69 68 69 70 70
26 30 35 40 40 33 35 33 35 35 39 38 40 46 55 57 59 58 59 61 62 63 60 60 64 65 66 67 66 66 67 66 70 67 68 69 69 69 68 69 68 70 70 70
28 27 26 27 36 38 27 28 36 37 38 43 36 44 54 56 57 57 58 60 60 62 63 64 63 65 65 66 67 68 68 69 68 67 68 68 69 68 67 69 68 67 67 69
27 31 30 33 39 34 35 34 38 39 42 45 52 52 53 56 57 58 59 59 60 61 62 62 64 65 67 66 66 67 67 68 68 69 69 70 69 69 69 68 68 69 70 69
24 31 29 26 28 36 33 36 34 30 38 46 49 53 55 57 57 57 58 59 59 59 60 61 63 64 65 66 67 67 67 68 68 68 68 69 69 69 69 69 68 68 66 65
24 28 25 31 30 29 39 37 37 35 43 49 49 51 54 55 51 55 58 58 59 60 61 60 60 62 63 65 65 64 64 65 64 66 67 67 67 67 66 65 64 65 64 63
23 25 22 25 22 33 42 39 36 31 41 49 49 50 51 52 55 57 58 59 59 60 60 61 61 62 63 64 63 62 62 62 63 64 65 66 66 65 66 65 65 64 62 61
28 29 22 21 20 23 33 33 36 42 46 50 49 48 51 55 56 57 57 57 58 59 59 60 61 61 61 62 62 61 59 61 62 62 62 62 63 63 63 63 63 63 62 60
20 23 26 25 33 38 38 43 43 42 42 46 49 49 51 52 54 55 54 56 57 58 59 60 60 60 61 61 62 60 59 60 59 60 61 61 61 61 62 61 60 59 59 58
24 28 21 23 24 32 38 41 41 41 43 44 48 50 50 50 51 52 54 56 57 57 58 59 59 59 59 60 59 60 60 60 60 59 59 59 59 59 58 58 59 59 58 58
31 33 23 26 33 34 36 38 39 40 40 41 47 48 49 50 50 51 52 55 56 57 58 58 58 58 58 58 58 58 58 58 56 54 55 55 57 56 55 52 49 53 41 40
24 27 25 23 31 34 30 34 37 38 38 39 44 47 48 49 50 51 52 54 55 56 56 57 57 57 57 57 57 57 57 57 56 55 53 53 54 55 54 54 48 37 37 37